Time,TemperatureF,DewpointF,PressureIn,WindDirection,WindDirectionDegrees,WindSpeedMPH,WindSpeedGustMPH,Humidity,HourlyPrecipIn,Conditions,Clouds,dailyrainin,SoftwareType,DateUTC
2013-03-25 00:00:00,76.4,72.6,29.74,West,259,0.0,1.0,88,0.00,,,0.00,Wunderground v.1.15,2013-03-25 04:00:00,
2013-03-25 00:05:00,76.3,72.5,29.74,West,259,0.0,0.0,88,0.00,,,0.00,Wunderground v.1.15,2013-03-25 04:05:00,
2013-03-25 00:07:00,76.3,72.5,29.74,WSW,258,0.0,0.0,88,0.00,,,0.00,Wunderground v.1.15,2013-03-25 04:07:00,
2013-03-25 00:08:00,76.3,72.5,29.74,WSW,258,0.0,0.0,88,0.00,,,0.00,Wunderground v.1.15,2013-03-25 04:08:00,
2013-03-25 00:11:00,76.3,72.5,29.74,WSW,258,0.0,0.0,88,0.00,,,0.00,Wunderground v.1.15,2013-03-25 04:11:00,
2013-03-25 00:12:00,76.3,72.5,29.74,WSW,258,0.0,0.0,88,0.00,,,0.00,Wunderground v.1.15,2013-03-25 04:12:00,
2013-03-25 00:15:00,76.3,72.5,29.74,SW,236,0.0,0.0,88,0.00,,,0.00,Wunderground v.1.15,2013-03-25 04:15:00,
2013-03-25 00:16:00,76.3,72.5,29.74,SW,236,0.0,0.0,88,0.00,,,0.00,Wunderground v.1.15,2013-03-25 04:16:00,
2013-03-25 00:17:00,76.3,72.5,29.74,SW,236,0.0,0.0,88,0.00,,,0.00,Wunderground v.1.15,2013-03-25 04:17:00,
2013-03-25 00:21:00,76.3,72.5,29.74,SW,236,0.0,0.0,88,0.00,,,0.00,Wunderground v.1.15,2013-03-25 04:21:00,
2013-03-25 00:23:00,76.3,72.5,29.74,SW,236,0.0,0.0,88,0.00,,,0.00,Wunderground v.1.15,2013-03-25 04:23:00,
2013-03-25 00:27:00,76.3,72.5,29.74,SW,236,0.0,0.0,88,0.00,,,0.00,Wunderground v.1.15,2013-03-25 04:27:00,
2013-03-25 00:28:00,76.4,72.6,29.74,SW,236,0.0,0.0,88,0.00,,,0.00,Wunderground v.1.15,2013-03-25 04:28:00,
2013-03-25 00:30:00,76.4,72.9,29.74,SW,236,0.0,0.0,89,0.00,,,0.00,Wunderground v.1.15,2013-03-25 04:30:00,
2013-03-25 00:32:00,76.4,72.9,29.74,SW,236,0.0,0.0,89,0.00,,,0.00,Wunderground v.1.15,2013-03-25 04:32:00,
2013-03-25 00:33:00,76.4,72.9,29.74,SW,236,0.0,0.0,89,0.00,,,0.00,Wunderground v.1.15,2013-03-25 04:33:00,
2013-03-25 00:36:00,76.4,72.6,29.74,SW,236,0.0,0.0,88,0.00,,,0.00,Wunderground v.1.15,2013-03-25 04:36:00,
2013-03-25 00:38:00,76.4,72.9,29.74,SW,236,0.0,0.0,89,0.00,,,0.00,Wunderground v.1.15,2013-03-25 04:38:00,
2013-03-25 00:40:00,76.4,72.9,29.74,SW,236,0.0,0.0,89,0.00,,,0.00,Wunderground v.1.15,2013-03-25 04:40:00,
2013-03-25 00:43:00,76.4,72.9,29.74,SW,236,0.0,0.0,89,0.00,,,0.00,Wunderground v.1.15,2013-03-25 04:43:00,
2013-03-25 00:45:00,76.4,72.9,29.74,SW,236,0.0,0.0,89,0.00,,,0.00,Wunderground v.1.15,2013-03-25 04:45:00,
2013-03-25 00:46:00,76.3,72.8,29.74,SW,236,0.0,0.0,89,0.00,,,0.00,Wunderground v.1.15,2013-03-25 04:46:00,
2013-03-25 00:50:00,76.3,72.8,29.74,WSW,257,0.0,0.0,89,0.00,,,0.00,Wunderground v.1.15,2013-03-25 04:50:00,
2013-03-25 00:51:00,76.3,72.8,29.74,WSW,257,0.0,0.0,89,0.00,,,0.00,Wunderground v.1.15,2013-03-25 04:51:00,
2013-03-25 00:52:00,76.3,72.8,29.74,SW,236,4.0,4.0,89,0.00,,,0.00,Wunderground v.1.15,2013-03-25 04:52:00,
2013-03-25 00:54:00,76.3,72.8,29.74,WSW,244,0.0,4.0,89,0.00,,,0.00,Wunderground v.1.15,2013-03-25 04:54:00,
2013-03-25 00:57:00,76.3,72.8,29.74,WSW,244,0.0,4.0,89,0.00,,,0.00,Wunderground v.1.15,2013-03-25 04:57:00,
2013-03-25 00:59:00,76.3,72.8,29.74,WSW,243,1.0,4.0,89,0.00,,,0.00,Wunderground v.1.15,2013-03-25 04:59:00,
2013-03-25 01:01:00,76.2,72.7,29.74,WSW,244,0.0,0.0,89,0.00,,,0.00,Wunderground v.1.15,2013-03-25 05:01:00,
2013-03-25 01:05:00,76.2,72.7,29.74,WSW,244,0.0,0.0,89,0.00,,,0.00,Wunderground v.1.15,2013-03-25 05:05:00,
2013-03-25 01:06:00,76.2,72.7,29.74,WSW,243,0.0,0.0,89,0.00,,,0.00,Wunderground v.1.15,2013-03-25 05:06:00,
2013-03-25 01:07:00,76.2,72.7,29.74,WSW,243,0.0,0.0,89,0.00,,,0.00,Wunderground v.1.15,2013-03-25 05:07:00,
2013-03-25 01:09:00,76.1,72.6,29.74,WSW,243,0.0,0.0,89,0.00,,,0.00,Wunderground v.1.15,2013-03-25 05:09:00,
2013-03-25 01:11:00,76.1,72.6,29.74,WSW,243,0.0,0.0,89,0.00,,,0.00,Wunderground v.1.15,2013-03-25 05:11:00,
2013-03-25 01:12:00,76.1,72.6,29.74,WSW,238,0.0,0.0,89,0.00,,,0.00,Wunderground v.1.15,2013-03-25 05:12:00,
2013-03-25 01:15:00,76.1,72.6,29.74,WSW,238,0.0,0.0,89,0.00,,,0.00,Wunderground v.1.15,2013-03-25 05:15:00,
2013-03-25 01:17:00,76.1,72.6,29.74,WSW,240,0.0,1.0,89,0.00,,,0.00,Wunderground v.1.15,2013-03-25 05:17:00,
2013-03-25 01:22:00,76.1,72.6,29.74,WSW,240,0.0,0.0,89,0.00,,,0.00,Wunderground v.1.15,2013-03-25 05:22:00,
2013-03-25 01:25:00,76.1,72.6,29.74,WSW,242,0.0,5.0,89,0.00,,,0.00,Wunderground v.1.15,2013-03-25 05:25:00,
2013-03-25 01:28:00,76.1,72.6,29.74,WSW,242,0.0,5.0,89,0.00,,,0.00,Wunderground v.1.15,2013-03-25 05:28:00,
2013-03-25 01:29:00,76.1,72.6,29.74,WSW,242,0.0,5.0,89,0.00,,,0.00,Wunderground v.1.15,2013-03-25 05:29:00,
2013-03-25 01:32:00,76.1,72.6,29.74,WSW,242,0.0,1.0,89,0.00,,,0.00,Wunderground v.1.15,2013-03-25 05:32:00,
2013-03-25 01:34:00,76.1,72.6,29.74,WSW,242,0.0,1.0,89,0.00,,,0.00,Wunderground v.1.15,2013-03-25 05:34:00,
2013-03-25 01:37:00,76.0,72.5,29.74,WSW,242,0.0,1.0,89,0.00,,,0.00,Wunderground v.1.15,2013-03-25 05:37:00,
2013-03-25 01:38:00,76.0,72.5,29.74,WSW,242,0.0,1.0,89,0.00,,,0.00,Wunderground v.1.15,2013-03-25 05:38:00,
2013-03-25 01:39:00,76.0,72.5,29.74,WSW,244,0.0,1.0,89,0.00,,,0.00,Wunderground v.1.15,2013-03-25 05:39:00,
2013-03-25 01:43:00,76.0,72.5,29.74,WSW,244,0.0,0.0,89,0.00,,,0.00,Wunderground v.1.15,2013-03-25 05:43:00,
2013-03-25 01:45:00,75.9,72.4,29.74,WSW,245,0.0,0.0,89,0.00,,,0.00,Wunderground v.1.15,2013-03-25 05:45:00,
2013-03-25 01:48:00,75.8,72.3,29.74,WSW,245,0.0,0.0,89,0.00,,,0.00,Wunderground v.1.15,2013-03-25 05:48:00,
2013-03-25 01:49:00,75.8,72.7,29.74,WSW,251,0.0,0.0,90,0.00,,,0.00,Wunderground v.1.15,2013-03-25 05:49:00,
2013-03-25 01:52:00,75.8,72.7,29.74,West,262,0.0,0.0,90,0.00,,,0.00,Wunderground v.1.15,2013-03-25 05:52:00,
2013-03-25 01:54:00,75.8,72.7,29.74,WSW,257,0.0,0.0,90,0.00,,,0.00,Wunderground v.1.15,2013-03-25 05:54:00,
2013-03-25 01:57:00,75.8,72.7,29.74,West,260,0.0,0.0,90,0.00,,,0.00,Wunderground v.1.15,2013-03-25 05:57:00,
2013-03-25 02:00:00,75.8,72.7,29.74,West,260,0.0,0.0,90,0.00,,,0.00,Wunderground v.1.15,2013-03-25 06:00:00,
2013-03-25 02:01:00,75.8,72.7,29.74,SW,216,1.0,1.0,90,0.00,,,0.00,Wunderground v.1.15,2013-03-25 06:01:00,
2013-03-25 02:04:00,75.7,72.6,29.74,WSW,247,0.0,1.0,90,0.00,,,0.00,Wunderground v.1.15,2013-03-25 06:04:00,
2013-03-25 02:05:00,75.7,72.6,29.74,WSW,252,0.0,2.0,90,0.00,,,0.00,Wunderground v.1.15,2013-03-25 06:05:00,
2013-03-25 02:06:00,75.7,72.6,29.74,WSW,242,4.0,4.0,90,0.00,,,0.00,Wunderground v.1.15,2013-03-25 06:06:00,
2013-03-25 02:07:00,75.7,72.6,29.74,WSW,242,0.0,4.0,90,0.00,,,0.00,Wunderground v.1.15,2013-03-25 06:07:00,
2013-03-25 02:09:00,75.7,72.6,29.74,WSW,242,0.0,4.0,90,0.00,,,0.00,Wunderground v.1.15,2013-03-25 06:09:00,
2013-03-25 02:10:00,75.7,72.6,29.74,WSW,256,1.0,3.0,90,0.00,,,0.00,Wunderground v.1.15,2013-03-25 06:10:00,
2013-03-25 02:12:00,75.7,72.6,29.74,WSW,257,0.0,3.0,90,0.00,,,0.00,Wunderground v.1.15,2013-03-25 06:12:00,
2013-03-25 02:14:00,75.7,72.6,29.73,WSW,257,0.0,3.0,90,0.00,,,0.00,Wunderground v.1.15,2013-03-25 06:14:00,
2013-03-25 02:16:00,75.6,72.5,29.73,WSW,256,0.0,3.0,90,0.00,,,0.00,Wunderground v.1.15,2013-03-25 06:16:00,
2013-03-25 02:17:00,75.6,72.5,29.73,WSW,242,0.0,5.0,90,0.00,,,0.00,Wunderground v.1.15,2013-03-25 06:17:00,
2013-03-25 02:18:00,75.6,72.5,29.73,WSW,242,0.0,5.0,90,0.00,,,0.00,Wunderground v.1.15,2013-03-25 06:18:00,
2013-03-25 02:19:00,75.6,72.8,29.73,WSW,242,0.0,5.0,91,0.00,,,0.00,Wunderground v.1.15,2013-03-25 06:19:00,
2013-03-25 02:21:00,75.6,72.8,29.73,WSW,242,1.0,1.0,91,0.00,,,0.00,Wunderground v.1.15,2013-03-25 06:21:00,
2013-03-25 02:22:00,75.6,72.8,29.73,WSW,246,1.0,3.0,91,0.00,,,0.00,Wunderground v.1.15,2013-03-25 06:22:00,
2013-03-25 02:23:00,75.6,72.8,29.73,WSW,246,0.0,3.0,91,0.00,,,0.00,Wunderground v.1.15,2013-03-25 06:23:00,
2013-03-25 02:24:00,75.6,72.8,29.73,WSW,256,4.0,5.0,91,0.00,,,0.00,Wunderground v.1.15,2013-03-25 06:24:00,
2013-03-25 02:26:00,75.6,72.8,29.73,WSW,248,0.0,5.0,91,0.00,,,0.00,Wunderground v.1.15,2013-03-25 06:26:00,
2013-03-25 02:28:00,75.7,72.9,29.73,WSW,248,0.0,5.0,91,0.00,,,0.00,Wunderground v.1.15,2013-03-25 06:28:00,
2013-03-25 02:29:00,75.7,72.9,29.73,WSW,244,0.0,5.0,91,0.00,,,0.00,Wunderground v.1.15,2013-03-25 06:29:00,
2013-03-25 02:31:00,75.6,72.8,29.73,WSW,245,0.0,5.0,91,0.00,,,0.00,Wunderground v.1.15,2013-03-25 06:31:00,
2013-03-25 02:33:00,75.6,72.8,29.73,WSW,248,4.0,5.0,91,0.00,,,0.00,Wunderground v.1.15,2013-03-25 06:33:00,
2013-03-25 02:34:00,75.7,72.9,29.73,WSW,252,0.0,5.0,91,0.00,,,0.00,Wunderground v.1.15,2013-03-25 06:34:00,
2013-03-25 02:37:00,75.7,72.9,29.73,West,261,0.0,6.0,91,0.00,,,0.00,Wunderground v.1.15,2013-03-25 06:37:00,
2013-03-25 02:38:00,75.7,72.9,29.73,West,274,2.0,6.0,91,0.00,,,0.00,Wunderground v.1.15,2013-03-25 06:38:00,
2013-03-25 02:40:00,75.7,72.9,29.73,WSW,257,4.0,6.0,91,0.00,,,0.00,Wunderground v.1.15,2013-03-25 06:40:00,
2013-03-25 02:43:00,75.7,72.9,29.73,WSW,248,0.0,2.0,91,0.00,,,0.00,Wunderground v.1.15,2013-03-25 06:43:00,
2013-03-25 02:44:00,75.8,73.0,29.73,WSW,250,0.0,2.0,91,0.00,,,0.00,Wunderground v.1.15,2013-03-25 06:44:00,
2013-03-25 02:45:00,75.8,73.0,29.73,WSW,250,0.0,2.0,91,0.00,,,0.00,Wunderground v.1.15,2013-03-25 06:45:00,
2013-03-25 02:48:00,75.7,72.9,29.73,SW,236,1.0,2.0,91,0.00,,,0.00,Wunderground v.1.15,2013-03-25 06:48:00,
2013-03-25 02:50:00,75.7,72.9,29.73,WSW,257,0.0,2.0,91,0.00,,,0.00,Wunderground v.1.15,2013-03-25 06:50:00,
2013-03-25 02:53:00,75.7,72.9,29.73,WSW,252,0.0,3.0,91,0.00,,,0.00,Wunderground v.1.15,2013-03-25 06:53:00,
2013-03-25 02:54:00,75.7,72.9,29.73,WSW,252,0.0,3.0,91,0.00,,,0.00,Wunderground v.1.15,2013-03-25 06:54:00,
2013-03-25 02:55:00,75.7,72.9,29.73,West,275,5.0,5.0,91,0.00,,,0.00,Wunderground v.1.15,2013-03-25 06:55:00,
2013-03-25 02:58:00,75.8,73.0,29.73,West,262,2.0,6.0,91,0.00,,,0.00,Wunderground v.1.15,2013-03-25 06:58:00,
2013-03-25 02:59:00,75.8,73.0,29.73,WSW,245,0.0,6.0,91,0.00,,,0.00,Wunderground v.1.15,2013-03-25 06:59:00,
2013-03-25 03:00:00,75.8,73.0,29.73,WSW,245,0.0,6.0,91,0.00,,,0.00,Wunderground v.1.15,2013-03-25 07:00:00,
2013-03-25 03:01:00,75.8,73.0,29.73,WSW,246,1.0,2.0,91,0.00,,,0.00,Wunderground v.1.15,2013-03-25 07:01:00,
2013-03-25 03:04:00,75.8,73.0,29.72,WSW,245,0.0,2.0,91,0.00,,,0.00,Wunderground v.1.15,2013-03-25 07:04:00,
2013-03-25 03:05:00,75.8,73.0,29.73,WSW,246,0.0,2.0,91,0.00,,,0.00,Wunderground v.1.15,2013-03-25 07:05:00,
2013-03-25 03:06:00,75.8,73.0,29.73,WSW,252,0.0,4.0,91,0.00,,,0.00,Wunderground v.1.15,2013-03-25 07:06:00,
2013-03-25 03:09:00,75.7,72.9,29.73,WSW,250,2.0,4.0,91,0.00,,,0.00,Wunderground v.1.15,2013-03-25 07:09:00,
2013-03-25 03:11:00,75.8,73.0,29.73,WSW,255,0.0,2.0,91,0.00,,,0.00,Wunderground v.1.15,2013-03-25 07:11:00,
2013-03-25 03:14:00,75.8,73.0,29.73,WSW,256,0.0,4.0,91,0.00,,,0.00,Wunderground v.1.15,2013-03-25 07:14:00,
2013-03-25 03:16:00,75.8,73.0,29.72,WSW,256,0.0,4.0,91,0.00,,,0.00,Wunderground v.1.15,2013-03-25 07:16:00,
2013-03-25 03:17:00,75.8,73.0,29.72,West,259,2.0,4.0,91,0.00,,,0.00,Wunderground v.1.15,2013-03-25 07:17:00,
2013-03-25 03:19:00,75.7,72.9,29.72,West,259,1.0,4.0,91,0.00,,,0.00,Wunderground v.1.15,2013-03-25 07:19:00,
2013-03-25 03:21:00,75.8,73.0,29.72,West,259,0.0,0.0,91,0.00,,,0.00,Wunderground v.1.15,2013-03-25 07:21:00,
2013-03-25 03:22:00,75.8,73.0,29.72,West,259,0.0,0.0,91,0.00,,,0.00,Wunderground v.1.15,2013-03-25 07:22:00,
2013-03-25 03:24:00,75.7,72.9,29.72,West,259,0.0,1.0,91,0.00,,,0.00,Wunderground v.1.15,2013-03-25 07:24:00,
2013-03-25 03:26:00,75.7,72.9,29.72,West,259,1.0,4.0,91,0.00,,,0.00,Wunderground v.1.15,2013-03-25 07:26:00,
2013-03-25 03:27:00,75.7,72.9,29.72,West,259,0.0,4.0,91,0.00,,,0.00,Wunderground v.1.15,2013-03-25 07:27:00,
2013-03-25 03:30:00,75.7,72.9,29.72,West,259,0.0,4.0,91,0.00,,,0.00,Wunderground v.1.15,2013-03-25 07:30:00,
2013-03-25 03:31:00,75.7,72.9,29.72,West,261,1.0,3.0,91,0.00,,,0.00,Wunderground v.1.15,2013-03-25 07:31:00,
2013-03-25 03:32:00,75.7,72.9,29.72,West,261,0.0,3.0,91,0.00,,,0.00,Wunderground v.1.15,2013-03-25 07:32:00,
2013-03-25 03:35:00,75.7,72.9,29.72,West,261,0.0,5.0,91,0.00,,,0.00,Wunderground v.1.15,2013-03-25 07:35:00,
2013-03-25 03:36:00,75.7,72.9,29.72,West,261,0.0,5.0,91,0.00,,,0.00,Wunderground v.1.15,2013-03-25 07:36:00,
2013-03-25 03:37:00,75.6,72.8,29.72,West,261,0.0,5.0,91,0.00,,,0.00,Wunderground v.1.15,2013-03-25 07:37:00,
2013-03-25 03:40:00,75.6,72.8,29.72,West,261,0.0,5.0,91,0.00,,,0.00,Wunderground v.1.15,2013-03-25 07:40:00,
2013-03-25 03:41:00,75.6,72.8,29.72,West,259,1.0,2.0,91,0.00,,,0.00,Wunderground v.1.15,2013-03-25 07:41:00,
2013-03-25 03:42:00,75.6,72.8,29.72,West,260,0.0,2.0,91,0.00,,,0.00,Wunderground v.1.15,2013-03-25 07:42:00,
2013-03-25 03:45:00,75.6,73.1,29.72,WSW,253,0.0,4.0,92,0.00,,,0.00,Wunderground v.1.15,2013-03-25 07:45:00,
2013-03-25 03:47:00,75.6,73.1,29.72,WSW,253,0.0,4.0,92,0.00,,,0.00,Wunderground v.1.15,2013-03-25 07:47:00,
2013-03-25 03:48:00,75.6,73.1,29.72,WSW,253,0.0,4.0,92,0.00,,,0.00,Wunderground v.1.15,2013-03-25 07:48:00,
2013-03-25 03:51:00,75.6,73.1,29.72,WSW,253,2.0,2.0,92,0.00,,,0.00,Wunderground v.1.15,2013-03-25 07:51:00,
2013-03-25 03:52:00,75.6,73.1,29.72,WSW,253,0.0,2.0,92,0.00,,,0.00,Wunderground v.1.15,2013-03-25 07:52:00,
2013-03-25 03:53:00,75.6,73.1,29.72,WSW,253,0.0,2.0,92,0.00,,,0.00,Wunderground v.1.15,2013-03-25 07:53:00,
2013-03-25 03:54:00,75.6,73.1,29.72,WSW,253,0.0,2.0,92,0.00,,,0.00,Wunderground v.1.15,2013-03-25 07:54:00,
2013-03-25 03:57:00,75.6,73.1,29.72,WSW,253,0.0,2.0,92,0.00,,,0.00,Wunderground v.1.15,2013-03-25 07:57:00,
2013-03-25 03:59:00,75.5,73.0,29.72,WSW,253,1.0,2.0,92,0.00,,,0.00,Wunderground v.1.15,2013-03-25 07:59:00,
2013-03-25 04:02:00,75.5,73.0,29.72,WSW,253,0.0,0.0,92,0.00,,,0.00,Wunderground v.1.15,2013-03-25 08:02:00,
2013-03-25 04:03:00,75.5,73.0,29.72,WSW,253,0.0,0.0,92,0.00,,,0.00,Wunderground v.1.15,2013-03-25 08:03:00,
2013-03-25 04:04:00,75.5,73.0,29.72,WSW,253,0.0,0.0,92,0.00,,,0.00,Wunderground v.1.15,2013-03-25 08:04:00,
2013-03-25 04:05:00,75.5,73.0,29.72,WSW,253,0.0,0.0,92,0.00,,,0.00,Wunderground v.1.15,2013-03-25 08:05:00,
2013-03-25 04:07:00,75.5,73.0,29.72,WSW,253,0.0,0.0,92,0.00,,,0.00,Wunderground v.1.15,2013-03-25 08:07:00,
2013-03-25 04:08:00,75.5,73.0,29.73,WSW,253,0.0,2.0,92,0.00,,,0.00,Wunderground v.1.15,2013-03-25 08:08:00,
2013-03-25 04:10:00,75.6,73.1,29.72,WSW,257,0.0,3.0,92,0.00,,,0.00,Wunderground v.1.15,2013-03-25 08:10:00,
2013-03-25 04:13:00,75.6,73.1,29.72,WSW,258,0.0,2.0,92,0.00,,,0.00,Wunderground v.1.15,2013-03-25 08:13:00,
2013-03-25 04:15:00,75.6,73.1,29.72,WSW,258,0.0,2.0,92,0.00,,,0.00,Wunderground v.1.15,2013-03-25 08:15:00,
2013-03-25 04:16:00,75.6,73.1,29.72,WSW,258,0.0,2.0,92,0.00,,,0.00,Wunderground v.1.15,2013-03-25 08:16:00,
2013-03-25 04:18:00,75.6,73.1,29.72,WSW,258,0.0,2.0,92,0.00,,,0.00,Wunderground v.1.15,2013-03-25 08:18:00,
2013-03-25 04:19:00,75.6,73.1,29.72,WSW,258,0.0,2.0,92,0.00,,,0.00,Wunderground v.1.15,2013-03-25 08:19:00,
2013-03-25 04:20:00,75.6,73.1,29.72,WSW,258,0.0,2.0,92,0.00,,,0.00,Wunderground v.1.15,2013-03-25 08:20:00,
2013-03-25 04:22:00,75.6,73.1,29.72,WSW,258,0.0,0.0,92,0.00,,,0.00,Wunderground v.1.15,2013-03-25 08:22:00,
2013-03-25 04:23:00,75.7,73.2,29.72,WSW,258,0.0,1.0,92,0.00,,,0.00,Wunderground v.1.15,2013-03-25 08:23:00,
2013-03-25 04:25:00,75.6,73.1,29.72,WSW,258,2.0,2.0,92,0.00,,,0.00,Wunderground v.1.15,2013-03-25 08:25:00,
2013-03-25 04:27:00,75.6,73.1,29.72,WSW,258,0.0,2.0,92,0.00,,,0.00,Wunderground v.1.15,2013-03-25 08:27:00,
2013-03-25 04:28:00,75.7,73.2,29.73,WSW,258,0.0,2.0,92,0.00,,,0.00,Wunderground v.1.15,2013-03-25 08:28:00,
2013-03-25 04:30:00,75.6,73.1,29.72,WSW,258,0.0,0.0,92,0.00,,,0.00,Wunderground v.1.15,2013-03-25 08:30:00,
2013-03-25 04:31:00,75.6,73.1,29.72,WSW,258,0.0,0.0,92,0.00,,,0.00,Wunderground v.1.15,2013-03-25 08:31:00,
2013-03-25 04:32:00,75.7,73.2,29.72,WSW,258,0.0,1.0,92,0.00,,,0.00,Wunderground v.1.15,2013-03-25 08:32:00,
2013-03-25 04:34:00,75.6,73.1,29.72,WSW,258,0.0,3.0,92,0.00,,,0.00,Wunderground v.1.15,2013-03-25 08:34:00,
2013-03-25 04:36:00,75.6,73.1,29.72,WSW,258,0.0,3.0,92,0.00,,,0.00,Wunderground v.1.15,2013-03-25 08:36:00,
2013-03-25 04:37:00,75.6,73.1,29.72,West,269,0.0,3.0,92,0.00,,,0.00,Wunderground v.1.15,2013-03-25 08:37:00,
2013-03-25 04:39:00,75.6,73.1,29.72,West,269,0.0,3.0,92,0.00,,,0.01,Wunderground v.1.15,2013-03-25 08:39:00,
2013-03-25 04:41:00,75.7,73.2,29.72,West,269,0.0,0.0,92,0.00,,,0.01,Wunderground v.1.15,2013-03-25 08:41:00,
2013-03-25 04:42:00,75.7,73.2,29.72,West,269,0.0,0.0,92,0.00,,,0.01,Wunderground v.1.15,2013-03-25 08:42:00,
2013-03-25 04:44:00,75.6,73.1,29.72,West,269,0.0,0.0,92,0.00,,,0.01,Wunderground v.1.15,2013-03-25 08:44:00,
2013-03-25 04:46:00,75.6,73.1,29.72,West,269,0.0,0.0,92,0.07,,,0.02,Wunderground v.1.15,2013-03-25 08:46:00,
2013-03-25 04:47:00,75.6,73.1,29.72,West,269,1.0,1.0,92,0.07,,,0.02,Wunderground v.1.15,2013-03-25 08:47:00,
2013-03-25 04:48:00,75.6,73.4,29.72,West,269,0.0,1.0,93,0.40,,,0.02,Wunderground v.1.15,2013-03-25 08:48:00,
2013-03-25 04:50:00,75.6,73.1,29.72,West,269,0.0,1.0,92,0.42,,,0.04,Wunderground v.1.15,2013-03-25 08:50:00,
2013-03-25 04:52:00,75.5,73.3,29.73,West,268,0.0,2.0,93,2.62,,,0.11,Wunderground v.1.15,2013-03-25 08:52:00,
2013-03-25 04:53:00,75.5,73.3,29.72,WSW,257,0.0,5.0,93,3.16,,,0.16,Wunderground v.1.15,2013-03-25 08:53:00,
2013-03-25 04:55:00,75.3,73.1,29.72,WSW,250,0.0,5.0,93,0.46,,,0.18,Wunderground v.1.15,2013-03-25 08:55:00,
2013-03-25 04:57:00,75.1,72.6,29.72,West,265,0.0,5.0,92,1.27,,,0.21,Wunderground v.1.15,2013-03-25 08:57:00,
2013-03-25 04:59:00,74.9,72.7,29.72,NW,314,0.0,5.0,93,0.18,,,0.21,Wunderground v.1.15,2013-03-25 08:59:00,
2013-03-25 05:00:00,74.8,72.6,29.72,NW,304,0.0,5.0,93,0.17,,,0.21,Wunderground v.1.15,2013-03-25 09:00:00,
2013-03-25 05:01:00,74.8,72.3,29.72,NW,304,0.0,1.0,92,0.13,,,0.21,Wunderground v.1.15,2013-03-25 09:01:00,
2013-03-25 05:02:00,74.7,72.5,29.72,NW,304,0.0,1.0,93,0.10,,,0.21,Wunderground v.1.15,2013-03-25 09:02:00,
2013-03-25 05:04:00,74.6,72.4,29.72,NW,304,0.0,1.0,93,0.07,,,0.21,Wunderground v.1.15,2013-03-25 09:04:00,
2013-03-25 05:05:00,74.6,72.4,29.72,NW,304,0.0,1.0,93,0.07,,,0.21,Wunderground v.1.15,2013-03-25 09:05:00,
2013-03-25 05:06:00,74.6,72.4,29.72,NW,304,0.0,1.0,93,0.06,,,0.21,Wunderground v.1.15,2013-03-25 09:06:00,
2013-03-25 05:07:00,74.6,72.4,29.72,NW,304,0.0,1.0,93,0.05,,,0.21,Wunderground v.1.15,2013-03-25 09:07:00,
2013-03-25 05:11:00,74.6,72.4,29.72,NW,304,0.0,0.0,93,0.04,,,0.21,Wunderground v.1.15,2013-03-25 09:11:00,
2013-03-25 05:12:00,74.6,72.8,29.72,NW,305,0.0,0.0,94,0.04,,,0.21,Wunderground v.1.15,2013-03-25 09:12:00,
2013-03-25 05:16:00,74.6,72.8,29.72,NW,305,0.0,1.0,94,0.00,,,0.21,Wunderground v.1.15,2013-03-25 09:16:00,
2013-03-25 05:18:00,74.5,72.7,29.72,NW,305,0.0,1.0,94,0.00,,,0.21,Wunderground v.1.15,2013-03-25 09:18:00,
2013-03-25 05:21:00,74.5,72.7,29.72,NW,305,0.0,0.0,94,0.00,,,0.21,Wunderground v.1.15,2013-03-25 09:21:00,
2013-03-25 05:22:00,74.5,72.7,29.72,NW,305,0.0,1.0,94,0.00,,,0.21,Wunderground v.1.15,2013-03-25 09:22:00,
2013-03-25 05:23:00,74.5,72.7,29.72,NW,305,0.0,1.0,94,0.00,,,0.21,Wunderground v.1.15,2013-03-25 09:23:00,
2013-03-25 05:26:00,74.4,72.6,29.72,NW,305,0.0,1.0,94,0.00,,,0.21,Wunderground v.1.15,2013-03-25 09:26:00,
2013-03-25 05:27:00,74.4,72.6,29.72,NW,305,0.0,1.0,94,0.00,,,0.21,Wunderground v.1.15,2013-03-25 09:27:00,
2013-03-25 05:28:00,74.4,72.6,29.72,NW,305,0.0,1.0,94,0.00,,,0.21,Wunderground v.1.15,2013-03-25 09:28:00,
2013-03-25 05:32:00,74.4,72.6,29.72,NW,305,0.0,0.0,94,0.00,,,0.21,Wunderground v.1.15,2013-03-25 09:32:00,
2013-03-25 05:35:00,74.4,72.9,29.72,NW,305,0.0,1.0,95,0.00,,,0.21,Wunderground v.1.15,2013-03-25 09:35:00,
2013-03-25 05:37:00,74.4,72.9,29.72,NW,305,0.0,2.0,95,0.00,,,0.21,Wunderground v.1.15,2013-03-25 09:37:00,
2013-03-25 05:38:00,74.4,72.9,29.72,NW,305,0.0,2.0,95,0.00,,,0.21,Wunderground v.1.15,2013-03-25 09:38:00,
2013-03-25 05:40:00,74.3,72.8,29.72,NW,305,0.0,2.0,95,0.00,,,0.21,Wunderground v.1.15,2013-03-25 09:40:00,
2013-03-25 05:42:00,74.2,72.7,29.72,NW,319,0.0,4.0,95,0.00,,,0.21,Wunderground v.1.15,2013-03-25 09:42:00,
2013-03-25 05:43:00,74.2,72.7,29.72,NW,319,0.0,4.0,95,0.00,,,0.21,Wunderground v.1.15,2013-03-25 09:43:00,
2013-03-25 05:45:00,74.2,72.7,29.72,NW,319,1.0,4.0,95,0.00,,,0.21,Wunderground v.1.15,2013-03-25 09:45:00,
2013-03-25 05:47:00,74.1,72.6,29.72,NW,325,2.0,5.0,95,0.00,,,0.21,Wunderground v.1.15,2013-03-25 09:47:00,
2013-03-25 05:48:00,74.1,72.6,29.72,NW,324,4.0,6.0,95,0.00,,,0.21,Wunderground v.1.15,2013-03-25 09:48:00,
2013-03-25 05:50:00,74.0,72.5,29.72,NW,315,0.0,1.0,95,0.00,,,0.21,Wunderground v.1.15,2013-03-25 09:50:00,
2013-03-25 05:51:00,73.9,72.4,29.72,NW,323,2.0,2.0,95,0.00,,,0.21,Wunderground v.1.15,2013-03-25 09:51:00,
2013-03-25 05:53:00,73.9,72.4,29.73,NW,321,0.0,5.0,95,0.00,,,0.21,Wunderground v.1.15,2013-03-25 09:53:00,
2013-03-25 05:56:00,73.8,72.3,29.73,NW,321,0.0,5.0,95,0.00,,,0.21,Wunderground v.1.15,2013-03-25 09:56:00,
2013-03-25 05:57:00,73.8,72.3,29.73,NW,321,0.0,5.0,95,0.00,,,0.21,Wunderground v.1.15,2013-03-25 09:57:00,
2013-03-25 05:58:00,73.7,72.2,29.73,NW,321,2.0,5.0,95,0.00,,,0.21,Wunderground v.1.15,2013-03-25 09:58:00,
2013-03-25 06:03:00,73.6,72.1,29.73,NW,313,0.0,4.0,95,0.00,,,0.21,Wunderground v.1.15,2013-03-25 10:03:00,
2013-03-25 06:04:00,73.6,72.1,29.73,NW,317,1.0,4.0,95,0.00,,,0.21,Wunderground v.1.15,2013-03-25 10:04:00,
2013-03-25 06:05:00,73.4,71.9,29.73,NW,317,0.0,4.0,95,0.00,,,0.21,Wunderground v.1.15,2013-03-25 10:05:00,
2013-03-25 06:08:00,73.3,71.8,29.73,NW,324,0.0,5.0,95,0.00,,,0.21,Wunderground v.1.15,2013-03-25 10:08:00,
2013-03-25 06:09:00,73.3,71.8,29.73,NW,323,1.0,5.0,95,0.00,,,0.21,Wunderground v.1.15,2013-03-25 10:09:00,
2013-03-25 06:11:00,73.2,71.7,29.73,NW,321,0.0,2.0,95,0.00,,,0.21,Wunderground v.1.15,2013-03-25 10:11:00,
2013-03-25 06:13:00,73.1,71.6,29.73,NNW,329,0.0,4.0,95,0.00,,,0.21,Wunderground v.1.15,2013-03-25 10:13:00,
2013-03-25 06:14:00,73.0,71.5,29.73,NNW,331,2.0,4.0,95,0.00,,,0.21,Wunderground v.1.15,2013-03-25 10:14:00,
2013-03-25 06:17:00,72.8,71.3,29.72,NW,324,0.0,6.0,95,0.00,,,0.21,Wunderground v.1.15,2013-03-25 10:17:00,
2013-03-25 06:18:00,72.8,71.3,29.72,NW,314,2.0,6.0,95,0.00,,,0.21,Wunderground v.1.15,2013-03-25 10:18:00,
2013-03-25 06:19:00,72.7,71.2,29.72,NW,320,0.0,6.0,95,0.00,,,0.21,Wunderground v.1.15,2013-03-25 10:19:00,
2013-03-25 06:22:00,72.6,71.1,29.72,NW,320,0.0,1.0,95,0.00,,,0.21,Wunderground v.1.15,2013-03-25 10:22:00,
2013-03-25 06:24:00,72.5,71.0,29.72,NW,320,0.0,1.0,95,0.00,,,0.21,Wunderground v.1.15,2013-03-25 10:24:00,
2013-03-25 06:25:00,72.5,71.0,29.72,NW,320,0.0,1.0,95,0.00,,,0.21,Wunderground v.1.15,2013-03-25 10:25:00,
2013-03-25 06:27:00,72.4,70.9,29.72,NW,320,0.0,1.0,95,0.00,,,0.21,Wunderground v.1.15,2013-03-25 10:27:00,
2013-03-25 06:29:00,72.4,70.9,29.72,NW,320,0.0,1.0,95,0.00,,,0.21,Wunderground v.1.15,2013-03-25 10:29:00,
2013-03-25 06:30:00,72.3,70.8,29.72,NW,320,0.0,1.0,95,0.00,,,0.21,Wunderground v.1.15,2013-03-25 10:30:00,
2013-03-25 06:32:00,72.2,70.7,29.72,NW,320,0.0,0.0,95,0.00,,,0.21,Wunderground v.1.15,2013-03-25 10:32:00,
2013-03-25 06:34:00,72.2,70.7,29.72,NW,320,0.0,0.0,95,0.00,,,0.21,Wunderground v.1.15,2013-03-25 10:34:00,
2013-03-25 06:35:00,72.2,70.7,29.72,NW,320,0.0,0.0,95,0.00,,,0.21,Wunderground v.1.15,2013-03-25 10:35:00,
2013-03-25 06:36:00,72.1,70.6,29.72,NW,320,0.0,0.0,95,0.00,,,0.21,Wunderground v.1.15,2013-03-25 10:36:00,
2013-03-25 06:37:00,72.1,70.6,29.72,NW,320,0.0,0.0,95,0.00,,,0.21,Wunderground v.1.15,2013-03-25 10:37:00,
2013-03-25 06:39:00,72.1,70.6,29.72,NW,320,0.0,0.0,95,0.00,,,0.21,Wunderground v.1.15,2013-03-25 10:39:00,
2013-03-25 06:40:00,72.1,70.6,29.72,NW,320,0.0,0.0,95,0.00,,,0.21,Wunderground v.1.15,2013-03-25 10:40:00,
2013-03-25 06:41:00,72.1,70.6,29.72,NW,320,0.0,0.0,95,0.00,,,0.21,Wunderground v.1.15,2013-03-25 10:41:00,
2013-03-25 06:42:00,72.1,70.6,29.72,NW,320,0.0,0.0,95,0.00,,,0.21,Wunderground v.1.15,2013-03-25 10:42:00,
2013-03-25 06:45:00,72.1,70.6,29.73,NW,320,0.0,0.0,95,0.00,,,0.21,Wunderground v.1.15,2013-03-25 10:45:00,
2013-03-25 06:46:00,72.2,70.7,29.73,NW,320,0.0,0.0,95,0.00,,,0.21,Wunderground v.1.15,2013-03-25 10:46:00,
2013-03-25 06:47:00,72.1,70.6,29.73,NW,320,0.0,0.0,95,0.00,,,0.21,Wunderground v.1.15,2013-03-25 10:47:00,
2013-03-25 06:49:00,72.1,70.6,29.73,NW,320,0.0,0.0,95,0.00,,,0.21,Wunderground v.1.15,2013-03-25 10:49:00,
2013-03-25 06:50:00,72.2,70.7,29.74,NW,320,0.0,0.0,95,0.00,,,0.21,Wunderground v.1.15,2013-03-25 10:50:00,
2013-03-25 06:52:00,72.2,70.7,29.74,NW,320,0.0,0.0,95,0.00,,,0.21,Wunderground v.1.15,2013-03-25 10:52:00,
2013-03-25 06:54:00,72.2,71.0,29.74,NW,320,0.0,0.0,96,0.00,,,0.21,Wunderground v.1.15,2013-03-25 10:54:00,
2013-03-25 06:56:00,72.3,71.1,29.74,NW,320,0.0,0.0,96,0.00,,,0.21,Wunderground v.1.15,2013-03-25 10:56:00,
2013-03-25 06:57:00,72.3,71.1,29.74,NW,320,0.0,0.0,96,0.00,,,0.21,Wunderground v.1.15,2013-03-25 10:57:00,
2013-03-25 06:59:00,72.3,71.1,29.74,NW,320,0.0,0.0,96,0.00,,,0.21,Wunderground v.1.15,2013-03-25 10:59:00,
2013-03-25 07:01:00,72.4,71.2,29.74,NW,320,0.0,0.0,96,0.00,,,0.21,Wunderground v.1.15,2013-03-25 11:01:00,
2013-03-25 07:02:00,72.4,71.2,29.74,NW,320,0.0,0.0,96,0.00,,,0.21,Wunderground v.1.15,2013-03-25 11:02:00,
2013-03-25 07:03:00,72.4,71.2,29.74,NW,320,0.0,0.0,96,0.00,,,0.21,Wunderground v.1.15,2013-03-25 11:03:00,
2013-03-25 07:04:00,72.4,71.2,29.74,NW,320,0.0,0.0,96,0.00,,,0.21,Wunderground v.1.15,2013-03-25 11:04:00,
2013-03-25 07:07:00,72.4,71.2,29.74,NW,320,0.0,0.0,96,0.00,,,0.21,Wunderground v.1.15,2013-03-25 11:07:00,
2013-03-25 07:08:00,72.3,71.1,29.74,NW,320,0.0,0.0,96,0.00,,,0.21,Wunderground v.1.15,2013-03-25 11:08:00,
2013-03-25 07:10:00,72.3,71.1,29.74,NW,320,0.0,0.0,96,0.00,,,0.21,Wunderground v.1.15,2013-03-25 11:10:00,
2013-03-25 07:12:00,72.2,71.0,29.74,NW,320,0.0,0.0,96,0.00,,,0.21,Wunderground v.1.15,2013-03-25 11:12:00,
2013-03-25 07:13:00,72.2,70.7,29.74,NW,320,0.0,0.0,95,0.00,,,0.21,Wunderground v.1.15,2013-03-25 11:13:00,
2013-03-25 07:14:00,72.2,70.7,29.74,NW,320,0.0,0.0,95,0.00,,,0.21,Wunderground v.1.15,2013-03-25 11:14:00,
2013-03-25 07:17:00,72.1,70.6,29.74,NW,320,0.0,0.0,95,0.00,,,0.21,Wunderground v.1.15,2013-03-25 11:17:00,
2013-03-25 07:18:00,72.1,70.6,29.74,NW,320,0.0,0.0,95,0.00,,,0.21,Wunderground v.1.15,2013-03-25 11:18:00,
2013-03-25 07:19:00,72.1,70.6,29.74,NW,320,0.0,0.0,95,0.00,,,0.21,Wunderground v.1.15,2013-03-25 11:19:00,
2013-03-25 07:22:00,72.1,70.9,29.74,NW,320,0.0,0.0,96,0.00,,,0.21,Wunderground v.1.15,2013-03-25 11:22:00,
2013-03-25 07:23:00,72.1,70.9,29.74,NW,320,0.0,0.0,96,0.00,,,0.21,Wunderground v.1.15,2013-03-25 11:23:00,
2013-03-25 07:24:00,72.1,70.9,29.75,NW,320,0.0,0.0,96,0.00,,,0.21,Wunderground v.1.15,2013-03-25 11:24:00,
2013-03-25 07:25:00,72.1,70.9,29.75,NW,320,0.0,0.0,96,0.00,,,0.21,Wunderground v.1.15,2013-03-25 11:25:00,
2013-03-25 07:27:00,72.2,71.0,29.75,NW,320,0.0,0.0,96,0.00,,,0.21,Wunderground v.1.15,2013-03-25 11:27:00,
2013-03-25 07:28:00,72.2,71.0,29.75,NW,320,0.0,0.0,96,0.00,,,0.21,Wunderground v.1.15,2013-03-25 11:28:00,
2013-03-25 07:29:00,72.2,71.0,29.75,NW,320,0.0,0.0,96,0.00,,,0.21,Wunderground v.1.15,2013-03-25 11:29:00,
2013-03-25 07:30:00,72.2,71.0,29.75,NW,320,0.0,0.0,96,0.00,,,0.21,Wunderground v.1.15,2013-03-25 11:30:00,
2013-03-25 07:32:00,72.2,71.0,29.75,NW,320,0.0,0.0,96,0.00,,,0.21,Wunderground v.1.15,2013-03-25 11:32:00,
2013-03-25 07:33:00,72.2,71.0,29.75,NW,320,0.0,0.0,96,0.00,,,0.21,Wunderground v.1.15,2013-03-25 11:33:00,
2013-03-25 07:34:00,72.2,71.0,29.75,NW,320,0.0,0.0,96,0.00,,,0.21,Wunderground v.1.15,2013-03-25 11:34:00,
2013-03-25 07:36:00,72.2,71.0,29.75,NW,320,0.0,0.0,96,0.00,,,0.21,Wunderground v.1.15,2013-03-25 11:36:00,
2013-03-25 07:39:00,72.2,71.0,29.75,NW,320,0.0,0.0,96,0.00,,,0.21,Wunderground v.1.15,2013-03-25 11:39:00,
2013-03-25 07:43:00,72.3,71.1,29.76,NW,320,0.0,0.0,96,0.00,,,0.21,Wunderground v.1.15,2013-03-25 11:43:00,
2013-03-25 07:44:00,72.4,71.2,29.76,NW,320,0.0,0.0,96,0.00,,,0.21,Wunderground v.1.15,2013-03-25 11:44:00,
2013-03-25 07:45:00,72.4,71.2,29.76,NW,320,0.0,0.0,96,0.00,,,0.21,Wunderground v.1.15,2013-03-25 11:45:00,
2013-03-25 07:48:00,72.4,71.2,29.76,NW,320,0.0,0.0,96,0.00,,,0.21,Wunderground v.1.15,2013-03-25 11:48:00,
2013-03-25 07:49:00,72.4,71.2,29.77,NW,320,0.0,0.0,96,0.00,,,0.21,Wunderground v.1.15,2013-03-25 11:49:00,
2013-03-25 07:50:00,72.4,71.2,29.77,NW,320,0.0,0.0,96,0.00,,,0.21,Wunderground v.1.15,2013-03-25 11:50:00,
2013-03-25 07:51:00,72.4,71.2,29.77,NW,320,0.0,0.0,96,0.00,,,0.21,Wunderground v.1.15,2013-03-25 11:51:00,
2013-03-25 07:54:00,72.4,71.2,29.78,NW,320,0.0,0.0,96,0.00,,,0.21,Wunderground v.1.15,2013-03-25 11:54:00,
2013-03-25 07:55:00,72.4,71.2,29.78,NW,320,0.0,0.0,96,0.00,,,0.21,Wunderground v.1.15,2013-03-25 11:55:00,
2013-03-25 07:56:00,72.3,71.1,29.78,NW,320,0.0,0.0,96,0.00,,,0.21,Wunderground v.1.15,2013-03-25 11:56:00,
2013-03-25 07:59:00,72.2,71.0,29.78,NW,320,0.0,0.0,96,0.00,,,0.21,Wunderground v.1.15,2013-03-25 11:59:00,
2013-03-25 08:00:00,72.1,70.9,29.78,NW,320,0.0,0.0,96,0.00,,,0.21,Wunderground v.1.15,2013-03-25 12:00:00,
2013-03-25 08:01:00,71.9,70.7,29.78,NW,320,0.0,0.0,96,0.00,,,0.21,Wunderground v.1.15,2013-03-25 12:01:00,
2013-03-25 08:04:00,71.5,70.3,29.79,NW,320,0.0,0.0,96,0.00,,,0.21,Wunderground v.1.15,2013-03-25 12:04:00,
2013-03-25 08:05:00,71.5,70.0,29.79,NW,320,0.0,0.0,95,0.00,,,0.21,Wunderground v.1.15,2013-03-25 12:05:00,
2013-03-25 08:06:00,71.3,69.8,29.79,NW,320,0.0,0.0,95,0.00,,,0.21,Wunderground v.1.15,2013-03-25 12:06:00,
2013-03-25 08:07:00,71.3,69.8,29.79,NW,320,0.0,0.0,95,0.00,,,0.21,Wunderground v.1.15,2013-03-25 12:07:00,
2013-03-25 08:10:00,71.0,69.8,29.79,NW,320,0.0,0.0,96,0.00,,,0.21,Wunderground v.1.15,2013-03-25 12:10:00,
2013-03-25 08:12:00,70.7,69.2,29.80,WNW,290,0.0,2.0,95,0.00,,,0.21,Wunderground v.1.15,2013-03-25 12:12:00,
2013-03-25 08:15:00,70.5,69.0,29.80,WNW,291,0.0,3.0,95,0.00,,,0.21,Wunderground v.1.15,2013-03-25 12:15:00,
2013-03-25 08:18:00,70.4,68.9,29.80,NW,321,0.0,6.0,95,0.00,,,0.21,Wunderground v.1.15,2013-03-25 12:18:00,
2013-03-25 08:20:00,70.4,69.2,29.80,NW,320,0.0,6.0,96,0.00,,,0.21,Wunderground v.1.15,2013-03-25 12:20:00,
2013-03-25 08:23:00,70.4,68.9,29.80,NW,317,0.0,0.0,95,0.00,,,0.21,Wunderground v.1.15,2013-03-25 12:23:00,
2013-03-25 08:24:00,70.3,68.8,29.80,NW,317,0.0,0.0,95,0.00,,,0.21,Wunderground v.1.15,2013-03-25 12:24:00,
2013-03-25 08:25:00,70.3,68.8,29.80,NW,317,0.0,0.0,95,0.00,,,0.21,Wunderground v.1.15,2013-03-25 12:25:00,
2013-03-25 08:28:00,70.1,68.6,29.80,NW,319,0.0,0.0,95,0.00,,,0.21,Wunderground v.1.15,2013-03-25 12:28:00,
2013-03-25 08:30:00,70.0,68.5,29.80,NW,319,0.0,0.0,95,0.00,,,0.21,Wunderground v.1.15,2013-03-25 12:30:00,
2013-03-25 08:33:00,69.9,68.4,29.80,NW,319,0.0,0.0,95,0.00,,,0.21,Wunderground v.1.15,2013-03-25 12:33:00,
2013-03-25 08:35:00,69.9,68.4,29.80,NW,319,0.0,0.0,95,0.00,,,0.21,Wunderground v.1.15,2013-03-25 12:35:00,
2013-03-25 08:36:00,70.0,68.5,29.80,NW,319,0.0,0.0,95,0.00,,,0.21,Wunderground v.1.15,2013-03-25 12:36:00,
2013-03-25 08:38:00,70.1,68.6,29.80,NW,319,0.0,0.0,95,0.00,,,0.21,Wunderground v.1.15,2013-03-25 12:38:00,
2013-03-25 08:40:00,70.2,68.7,29.80,NW,319,0.0,0.0,95,0.00,,,0.21,Wunderground v.1.15,2013-03-25 12:40:00,
2013-03-25 08:41:00,70.2,68.7,29.80,NW,319,0.0,0.0,95,0.00,,,0.21,Wunderground v.1.15,2013-03-25 12:41:00,
2013-03-25 08:45:00,70.2,68.7,29.81,NW,319,0.0,0.0,95,0.00,,,0.21,Wunderground v.1.15,2013-03-25 12:45:00,
2013-03-25 08:46:00,70.3,68.8,29.80,NW,319,0.0,0.0,95,0.00,,,0.21,Wunderground v.1.15,2013-03-25 12:46:00,
2013-03-25 08:47:00,70.3,68.8,29.80,NW,321,0.0,2.0,95,0.00,,,0.21,Wunderground v.1.15,2013-03-25 12:47:00,
2013-03-25 08:50:00,70.3,68.8,29.81,NNW,330,0.0,5.0,95,0.00,,,0.21,Wunderground v.1.15,2013-03-25 12:50:00,
2013-03-25 08:51:00,70.2,68.4,29.81,NNW,328,0.0,0.0,94,0.00,,,0.21,Wunderground v.1.15,2013-03-25 12:51:00,
2013-03-25 08:52:00,70.2,68.4,29.81,NNW,328,0.0,0.0,94,0.00,,,0.21,Wunderground v.1.15,2013-03-25 12:52:00,
2013-03-25 08:55:00,70.2,68.4,29.81,NW,321,0.0,3.0,94,0.00,,,0.21,Wunderground v.1.15,2013-03-25 12:55:00,
2013-03-25 08:56:00,70.3,68.5,29.81,NW,321,0.0,3.0,94,0.00,,,0.21,Wunderground v.1.15,2013-03-25 12:56:00,
2013-03-25 08:57:00,70.3,68.5,29.81,NW,321,0.0,3.0,94,0.00,,,0.21,Wunderground v.1.15,2013-03-25 12:57:00,
2013-03-25 09:00:00,70.5,68.7,29.81,NNW,329,0.0,3.0,94,0.00,,,0.21,Wunderground v.1.15,2013-03-25 13:00:00,
2013-03-25 09:02:00,70.8,69.0,29.81,NNW,340,0.0,5.0,94,0.00,,,0.21,Wunderground v.1.15,2013-03-25 13:02:00,
2013-03-25 09:03:00,70.8,69.0,29.81,NNW,340,0.0,5.0,94,0.00,,,0.21,Wunderground v.1.15,2013-03-25 13:03:00,
2013-03-25 09:07:00,70.9,69.1,29.82,NNW,342,0.0,5.0,94,0.00,,,0.21,Wunderground v.1.15,2013-03-25 13:07:00,
2013-03-25 09:08:00,70.9,69.1,29.82,NNW,342,0.0,5.0,94,0.00,,,0.21,Wunderground v.1.15,2013-03-25 13:08:00,
2013-03-25 09:12:00,71.1,69.0,29.82,NNW,342,0.0,0.0,93,0.00,,,0.21,Wunderground v.1.15,2013-03-25 13:12:00,
2013-03-25 09:13:00,71.1,69.0,29.82,NNW,342,0.0,0.0,93,0.00,,,0.21,Wunderground v.1.15,2013-03-25 13:13:00,
2013-03-25 09:14:00,71.2,69.1,29.82,NNW,342,0.0,0.0,93,0.00,,,0.21,Wunderground v.1.15,2013-03-25 13:14:00,
2013-03-25 09:18:00,71.2,69.1,29.83,NNW,343,0.0,0.0,93,0.00,,,0.21,Wunderground v.1.15,2013-03-25 13:18:00,
2013-03-25 09:19:00,71.2,69.1,29.83,NNW,343,0.0,0.0,93,0.00,,,0.21,Wunderground v.1.15,2013-03-25 13:19:00,
2013-03-25 09:23:00,71.3,69.2,29.83,NNW,342,0.0,2.0,93,0.00,,,0.21,Wunderground v.1.15,2013-03-25 13:23:00,
2013-03-25 09:24:00,71.3,69.2,29.83,NNW,342,0.0,2.0,93,0.00,,,0.21,Wunderground v.1.15,2013-03-25 13:24:00,
2013-03-25 09:25:00,71.3,69.2,29.83,NNW,339,0.0,2.0,93,0.00,,,0.21,Wunderground v.1.15,2013-03-25 13:25:00,
2013-03-25 09:29:00,71.3,69.2,29.83,NNW,331,0.0,2.0,93,0.00,,,0.21,Wunderground v.1.15,2013-03-25 13:29:00,
2013-03-25 09:30:00,71.3,69.2,29.83,NW,321,6.0,6.0,93,0.00,,,0.21,Wunderground v.1.15,2013-03-25 13:30:00,
2013-03-25 09:34:00,71.1,69.0,29.83,NW,321,0.0,6.0,93,0.00,,,0.21,Wunderground v.1.15,2013-03-25 13:34:00,
2013-03-25 09:35:00,71.1,69.0,29.83,NW,321,0.0,6.0,93,0.00,,,0.21,Wunderground v.1.15,2013-03-25 13:35:00,
2013-03-25 09:39:00,71.2,69.1,29.83,NW,320,0.0,6.0,93,0.00,,,0.21,Wunderground v.1.15,2013-03-25 13:39:00,
2013-03-25 09:40:00,71.2,69.1,29.83,NW,320,0.0,6.0,93,0.00,,,0.21,Wunderground v.1.15,2013-03-25 13:40:00,
2013-03-25 09:41:00,71.2,69.1,29.83,NW,324,0.0,4.0,93,0.00,,,0.21,Wunderground v.1.15,2013-03-25 13:41:00,
2013-03-25 09:45:00,70.9,68.5,29.83,NW,325,0.0,4.0,92,0.00,,,0.21,Wunderground v.1.15,2013-03-25 13:45:00,
2013-03-25 09:46:00,70.9,68.5,29.83,NW,322,4.0,5.0,92,0.00,,,0.21,Wunderground v.1.15,2013-03-25 13:46:00,
2013-03-25 09:50:00,71.0,68.6,29.83,NW,317,0.0,5.0,92,0.00,,,0.21,Wunderground v.1.15,2013-03-25 13:50:00,
2013-03-25 09:53:00,71.0,68.2,29.84,NNW,343,0.0,5.0,91,0.00,,,0.21,Wunderground v.1.15,2013-03-25 13:53:00,
2013-03-25 09:55:00,71.0,68.2,29.84,NNW,343,0.0,5.0,91,0.00,,,0.21,Wunderground v.1.15,2013-03-25 13:55:00,
2013-03-25 09:58:00,71.2,68.4,29.84,NNW,343,0.0,5.0,91,0.00,,,0.21,Wunderground v.1.15,2013-03-25 13:58:00,
2013-03-25 10:00:00,71.2,68.4,29.84,NW,323,0.0,5.0,91,0.00,,,0.21,Wunderground v.1.15,2013-03-25 14:00:00,
2013-03-25 10:01:00,71.2,68.4,29.84,NW,323,0.0,0.0,91,0.00,,,0.21,Wunderground v.1.15,2013-03-25 14:01:00,
2013-03-25 10:02:00,71.2,68.4,29.84,NW,323,0.0,0.0,91,0.00,,,0.21,Wunderground v.1.15,2013-03-25 14:02:00,
2013-03-25 10:04:00,71.2,68.4,29.84,NW,323,0.0,0.0,91,0.00,,,0.21,Wunderground v.1.15,2013-03-25 14:04:00,
2013-03-25 10:06:00,71.2,68.4,29.84,NW,316,0.0,0.0,91,0.00,,,0.21,Wunderground v.1.15,2013-03-25 14:06:00,
2013-03-25 10:07:00,71.2,68.4,29.84,NW,317,0.0,0.0,91,0.00,,,0.21,Wunderground v.1.15,2013-03-25 14:07:00,
2013-03-25 10:09:00,71.2,68.4,29.84,NW,312,0.0,0.0,91,0.00,,,0.21,Wunderground v.1.15,2013-03-25 14:09:00,
2013-03-25 10:11:00,71.2,68.4,29.84,NW,314,0.0,0.0,91,0.00,,,0.21,Wunderground v.1.15,2013-03-25 14:11:00,
2013-03-25 10:12:00,71.3,68.5,29.84,NW,309,0.0,0.0,91,0.00,,,0.21,Wunderground v.1.15,2013-03-25 14:12:00,
2013-03-25 10:14:00,71.3,68.5,29.84,NW,309,0.0,0.0,91,0.00,,,0.21,Wunderground v.1.15,2013-03-25 14:14:00,
2013-03-25 10:16:00,71.3,68.5,29.84,West,279,4.0,4.0,91,0.00,,,0.21,Wunderground v.1.15,2013-03-25 14:16:00,
2013-03-25 10:17:00,71.3,68.5,29.84,NW,304,1.0,4.0,91,0.00,,,0.21,Wunderground v.1.15,2013-03-25 14:17:00,
2013-03-25 10:19:00,71.3,68.5,29.84,WNW,298,6.0,6.0,91,0.00,,,0.21,Wunderground v.1.15,2013-03-25 14:19:00,
2013-03-25 10:22:00,71.8,69.0,29.84,NW,308,0.0,4.0,91,0.00,,,0.21,Wunderground v.1.15,2013-03-25 14:22:00,
2013-03-25 10:23:00,71.9,69.1,29.84,WNW,284,4.0,4.0,91,0.00,,,0.21,Wunderground v.1.15,2013-03-25 14:23:00,
2013-03-25 10:25:00,72.3,69.5,29.84,WNW,286,0.0,4.0,91,0.00,,,0.21,Wunderground v.1.15,2013-03-25 14:25:00,
2013-03-25 10:27:00,72.1,68.0,29.85,WNW,300,5.0,9.0,87,0.00,,,0.21,Wunderground v.1.15,2013-03-25 14:27:00,
2013-03-25 10:28:00,71.9,67.8,29.85,NW,313,8.0,9.0,87,0.00,,,0.21,Wunderground v.1.15,2013-03-25 14:28:00,
2013-03-25 10:29:00,71.7,67.3,29.85,North,350,1.0,9.0,86,0.00,,,0.21,Wunderground v.1.15,2013-03-25 14:29:00,
2013-03-25 10:31:00,72.0,67.2,29.85,NW,317,2.0,6.0,85,0.00,,,0.21,Wunderground v.1.15,2013-03-25 14:31:00,
2013-03-25 10:33:00,72.2,67.1,29.85,WNW,293,0.0,6.0,84,0.00,,,0.21,Wunderground v.1.15,2013-03-25 14:33:00,
2013-03-25 10:34:00,72.2,66.4,29.85,NNW,343,5.0,8.0,82,0.00,,,0.21,Wunderground v.1.15,2013-03-25 14:34:00,
2013-03-25 10:36:00,72.1,65.9,29.85,North,355,4.0,8.0,81,0.00,,,0.21,Wunderground v.1.15,2013-03-25 14:36:00,
2013-03-25 10:38:00,72.4,66.2,29.85,NNW,333,0.0,8.0,81,0.00,,,0.21,Wunderground v.1.15,2013-03-25 14:38:00,
2013-03-25 10:39:00,72.8,66.3,29.85,NNW,333,8.0,9.0,80,0.00,,,0.21,Wunderground v.1.15,2013-03-25 14:39:00,
2013-03-25 10:42:00,73.3,66.4,29.85,NW,317,8.0,8.0,79,0.00,,,0.21,Wunderground v.1.15,2013-03-25 14:42:00,
2013-03-25 10:43:00,73.3,66.0,29.85,NW,323,2.0,10.0,78,0.00,,,0.21,Wunderground v.1.15,2013-03-25 14:43:00,
2013-03-25 10:44:00,73.4,66.5,29.85,NNW,338,4.0,10.0,79,0.00,,,0.21,Wunderground v.1.15,2013-03-25 14:44:00,
2013-03-25 10:45:00,73.4,66.5,29.85,NNW,333,1.0,10.0,79,0.00,,,0.21,Wunderground v.1.15,2013-03-25 14:45:00,
2013-03-25 10:47:00,73.7,67.1,29.85,WNW,300,4.0,10.0,80,0.00,,,0.21,Wunderground v.1.15,2013-03-25 14:47:00,
2013-03-25 10:49:00,74.4,68.5,29.85,NNW,346,1.0,10.0,82,0.00,,,0.21,Wunderground v.1.15,2013-03-25 14:49:00,
2013-03-25 10:50:00,74.7,68.8,29.85,NNW,341,0.0,10.0,82,0.00,,,0.21,Wunderground v.1.15,2013-03-25 14:50:00,
2013-03-25 10:51:00,75.0,69.5,29.85,NNW,339,3.0,4.0,83,0.00,,,0.21,Wunderground v.1.15,2013-03-25 14:51:00,
2013-03-25 10:53:00,75.4,68.8,29.85,NNW,331,3.0,4.0,80,0.00,,,0.21,Wunderground v.1.15,2013-03-25 14:53:00,
2013-03-25 10:55:00,75.4,68.4,29.85,NNW,327,0.0,4.0,79,0.00,,,0.21,Wunderground v.1.15,2013-03-25 14:55:00,
2013-03-25 10:56:00,75.3,68.7,29.85,WNW,301,1.0,4.0,80,0.00,,,0.21,Wunderground v.1.15,2013-03-25 14:56:00,
2013-03-25 10:59:00,74.7,67.8,29.85,NW,306,1.0,10.0,79,0.00,,,0.21,Wunderground v.1.15,2013-03-25 14:59:00,
2013-03-25 11:00:00,74.5,67.2,29.85,NNW,332,1.0,10.0,78,0.00,,,0.21,Wunderground v.1.15,2013-03-25 15:00:00,
2013-03-25 11:01:00,74.2,67.3,29.85,NNW,329,2.0,2.0,79,0.00,,,0.21,Wunderground v.1.15,2013-03-25 15:01:00,
2013-03-25 11:02:00,74.0,67.1,29.85,NW,325,6.0,6.0,79,0.00,,,0.21,Wunderground v.1.15,2013-03-25 15:02:00,
2013-03-25 11:05:00,73.6,65.6,29.85,NNW,335,0.0,7.0,76,0.00,,,0.21,Wunderground v.1.15,2013-03-25 15:05:00,
2013-03-25 11:06:00,73.6,65.9,29.85,NNW,333,0.0,7.0,77,0.00,,,0.21,Wunderground v.1.15,2013-03-25 15:06:00,
2013-03-25 11:07:00,73.7,66.4,29.85,NNW,330,0.0,7.0,78,0.00,,,0.21,Wunderground v.1.15,2013-03-25 15:07:00,
2013-03-25 11:11:00,73.7,66.4,29.85,NW,324,9.0,9.0,78,0.00,,,0.21,Wunderground v.1.15,2013-03-25 15:11:00,
2013-03-25 11:12:00,73.7,66.8,29.85,NW,323,0.0,9.0,79,0.00,,,0.21,Wunderground v.1.15,2013-03-25 15:12:00,
2013-03-25 11:16:00,74.3,67.7,29.85,NNW,346,6.0,11.0,80,0.00,,,0.21,Wunderground v.1.15,2013-03-25 15:16:00,
2013-03-25 11:17:00,74.4,67.8,29.85,North,360,6.0,11.0,80,0.00,,,0.21,Wunderground v.1.15,2013-03-25 15:17:00,
2013-03-25 11:18:00,74.4,67.8,29.85,NW,321,0.0,11.0,80,0.00,,,0.21,Wunderground v.1.15,2013-03-25 15:18:00,
2013-03-25 11:21:00,74.5,67.2,29.85,WNW,302,0.0,6.0,78,0.00,,,0.21,Wunderground v.1.15,2013-03-25 15:21:00,
2013-03-25 11:23:00,74.5,67.2,29.85,WNW,296,1.0,6.0,78,0.00,,,0.21,Wunderground v.1.15,2013-03-25 15:23:00,
2013-03-25 11:24:00,74.6,67.3,29.85,WNW,302,0.0,6.0,78,0.00,,,0.21,Wunderground v.1.15,2013-03-25 15:24:00,
2013-03-25 11:27:00,74.5,66.4,29.85,NW,323,4.0,7.0,76,0.00,,,0.21,Wunderground v.1.15,2013-03-25 15:27:00,
2013-03-25 11:28:00,74.4,66.7,29.85,NW,326,3.0,7.0,77,0.00,,,0.21,Wunderground v.1.15,2013-03-25 15:28:00,
2013-03-25 11:29:00,74.4,66.7,29.85,NNW,329,5.0,8.0,77,0.00,,,0.21,Wunderground v.1.15,2013-03-25 15:29:00,
2013-03-25 11:30:00,74.4,66.7,29.85,NNW,332,0.0,8.0,77,0.00,,,0.21,Wunderground v.1.15,2013-03-25 15:30:00,
2013-03-25 11:33:00,74.9,67.6,29.85,NNW,347,7.0,9.0,78,0.00,,,0.21,Wunderground v.1.15,2013-03-25 15:33:00,
2013-03-25 11:34:00,75.1,67.4,29.85,NNW,342,5.0,9.0,77,0.00,,,0.21,Wunderground v.1.15,2013-03-25 15:34:00,
2013-03-25 11:35:00,75.3,67.2,29.85,North,355,1.0,9.0,76,0.00,,,0.21,Wunderground v.1.15,2013-03-25 15:35:00,
2013-03-25 11:38:00,75.5,67.4,29.85,NW,324,1.0,9.0,76,0.00,,,0.21,Wunderground v.1.15,2013-03-25 15:38:00,
2013-03-25 11:39:00,75.7,67.6,29.85,NW,326,0.0,9.0,76,0.00,,,0.21,Wunderground v.1.15,2013-03-25 15:39:00,
2013-03-25 11:42:00,75.9,67.0,29.86,NNW,327,0.0,7.0,74,0.00,,,0.21,Wunderground v.1.15,2013-03-25 15:42:00,
2013-03-25 11:43:00,75.7,66.4,29.85,NW,326,9.0,9.0,73,0.00,,,0.21,Wunderground v.1.15,2013-03-25 15:43:00,
2013-03-25 11:45:00,75.5,66.2,29.86,WNW,294,6.0,9.0,73,0.00,,,0.21,Wunderground v.1.15,2013-03-25 15:45:00,
2013-03-25 11:47:00,75.1,65.9,29.86,NNW,342,5.0,9.0,73,0.00,,,0.21,Wunderground v.1.15,2013-03-25 15:47:00,
2013-03-25 11:49:00,75.1,66.6,29.85,NNW,330,0.0,9.0,75,0.00,,,0.21,Wunderground v.1.15,2013-03-25 15:49:00,
2013-03-25 11:50:00,75.5,67.4,29.85,NNW,329,0.0,2.0,76,0.00,,,0.21,Wunderground v.1.15,2013-03-25 15:50:00,
2013-03-25 11:51:00,75.7,67.2,29.85,NNW,329,0.0,2.0,75,0.00,,,0.21,Wunderground v.1.15,2013-03-25 15:51:00,
2013-03-25 11:52:00,75.6,67.1,29.85,NW,315,0.0,3.0,75,0.00,,,0.21,Wunderground v.1.15,2013-03-25 15:52:00,
2013-03-25 11:54:00,75.4,66.5,29.85,NNW,332,1.0,8.0,74,0.00,,,0.21,Wunderground v.1.15,2013-03-25 15:54:00,
2013-03-25 11:56:00,74.9,65.3,29.85,NNW,330,6.0,8.0,72,0.00,,,0.21,Wunderground v.1.15,2013-03-25 15:56:00,
2013-03-25 11:57:00,74.8,65.2,29.85,NW,322,1.0,8.0,72,0.00,,,0.21,Wunderground v.1.15,2013-03-25 15:57:00,
2013-03-25 11:59:00,74.3,64.7,29.86,WNW,298,4.0,8.0,72,0.00,,,0.21,Wunderground v.1.15,2013-03-25 15:59:00,
2013-03-25 12:01:00,74.1,64.5,29.86,WNW,300,0.0,3.0,72,0.00,,,0.21,Wunderground v.1.15,2013-03-25 16:01:00,
2013-03-25 12:02:00,73.9,64.7,29.86,NW,309,0.0,3.0,73,0.00,,,0.21,Wunderground v.1.15,2013-03-25 16:02:00,
2013-03-25 12:03:00,73.9,64.7,29.86,NW,321,0.0,3.0,73,0.00,,,0.21,Wunderground v.1.15,2013-03-25 16:03:00,
2013-03-25 12:05:00,73.7,64.5,29.86,NNW,338,4.0,5.0,73,0.00,,,0.21,Wunderground v.1.15,2013-03-25 16:05:00,
2013-03-25 12:07:00,73.5,64.3,29.86,NNW,331,0.0,5.0,73,0.00,,,0.21,Wunderground v.1.15,2013-03-25 16:07:00,
2013-03-25 12:08:00,73.4,64.6,29.86,NNW,336,1.0,5.0,74,0.00,,,0.21,Wunderground v.1.15,2013-03-25 16:08:00,
2013-03-25 12:10:00,73.4,64.6,29.86,NNW,338,2.0,6.0,74,0.00,,,0.21,Wunderground v.1.15,2013-03-25 16:10:00,
2013-03-25 12:12:00,73.8,65.4,29.86,WNW,295,5.0,5.0,75,0.00,,,0.21,Wunderground v.1.15,2013-03-25 16:12:00,
2013-03-25 12:13:00,73.9,64.7,29.86,NW,321,2.0,8.0,73,0.00,,,0.21,Wunderground v.1.15,2013-03-25 16:13:00,
2013-03-25 12:15:00,74.1,64.5,29.86,North,351,1.0,8.0,72,0.00,,,0.21,Wunderground v.1.15,2013-03-25 16:15:00,
2013-03-25 12:17:00,74.3,65.1,29.86,NW,322,0.0,8.0,73,0.00,,,0.21,Wunderground v.1.15,2013-03-25 16:17:00,
2013-03-25 12:18:00,74.4,65.2,29.86,NW,313,0.0,8.0,73,0.00,,,0.21,Wunderground v.1.15,2013-03-25 16:18:00,
2013-03-25 12:21:00,74.8,64.8,29.86,WNW,301,0.0,8.0,71,0.00,,,0.21,Wunderground v.1.15,2013-03-25 16:21:00,
2013-03-25 12:23:00,74.9,64.9,29.85,NW,326,0.0,8.0,71,0.00,,,0.21,Wunderground v.1.15,2013-03-25 16:23:00,
2013-03-25 12:24:00,74.9,64.9,29.85,NW,326,0.0,8.0,71,0.00,,,0.21,Wunderground v.1.15,2013-03-25 16:24:00,
2013-03-25 12:26:00,75.3,65.6,29.86,NW,319,0.0,8.0,72,0.00,,,0.21,Wunderground v.1.15,2013-03-25 16:26:00,
2013-03-25 12:28:00,75.3,64.4,29.85,NNW,340,1.0,8.0,69,0.00,,,0.21,Wunderground v.1.15,2013-03-25 16:28:00,
2013-03-25 12:29:00,75.2,64.3,29.85,NW,313,5.0,8.0,69,0.00,,,0.21,Wunderground v.1.15,2013-03-25 16:29:00,
2013-03-25 12:32:00,75.1,64.6,29.86,NW,313,0.0,4.0,70,0.00,,,0.21,Wunderground v.1.15,2013-03-25 16:32:00,
2013-03-25 12:34:00,75.1,64.6,29.86,NW,325,0.0,5.0,70,0.00,,,0.21,Wunderground v.1.15,2013-03-25 16:34:00,
2013-03-25 12:36:00,75.6,66.3,29.86,NNW,331,6.0,6.0,73,0.00,,,0.21,Wunderground v.1.15,2013-03-25 16:36:00,
2013-03-25 12:37:00,76.0,65.5,29.86,NNW,328,2.0,11.0,70,0.00,,,0.21,Wunderground v.1.15,2013-03-25 16:37:00,
2013-03-25 12:39:00,75.9,64.6,29.86,NW,317,3.0,11.0,68,0.00,,,0.21,Wunderground v.1.15,2013-03-25 16:39:00,
2013-03-25 12:40:00,75.7,64.0,29.86,NW,325,5.0,11.0,67,0.00,,,0.21,Wunderground v.1.15,2013-03-25 16:40:00,
2013-03-25 12:41:00,75.5,63.8,29.86,NW,322,0.0,4.0,67,0.00,,,0.21,Wunderground v.1.15,2013-03-25 16:41:00,
2013-03-25 12:44:00,75.0,63.7,29.85,NNW,331,0.0,11.0,68,0.00,,,0.21,Wunderground v.1.15,2013-03-25 16:44:00,
2013-03-25 12:45:00,75.1,64.6,29.85,NW,325,0.0,11.0,70,0.00,,,0.21,Wunderground v.1.15,2013-03-25 16:45:00,
2013-03-25 12:46:00,75.5,65.4,29.85,NW,304,1.0,11.0,71,0.00,,,0.21,Wunderground v.1.15,2013-03-25 16:46:00,
2013-03-25 12:47:00,75.6,65.1,29.85,NNW,346,1.0,11.0,70,0.00,,,0.21,Wunderground v.1.15,2013-03-25 16:47:00,
2013-03-25 12:49:00,75.8,65.3,29.85,NW,313,0.0,11.0,70,0.00,,,0.21,Wunderground v.1.15,2013-03-25 16:49:00,
2013-03-25 12:50:00,75.9,65.4,29.85,WNW,294,4.0,11.0,70,0.00,,,0.21,Wunderground v.1.15,2013-03-25 16:50:00,
2013-03-25 12:52:00,75.9,64.2,29.85,NW,325,6.0,6.0,67,0.00,,,0.21,Wunderground v.1.15,2013-03-25 16:52:00,
2013-03-25 12:54:00,75.8,64.1,29.85,NNW,347,10.0,10.0,67,0.00,,,0.21,Wunderground v.1.15,2013-03-25 16:54:00,
2013-03-25 12:55:00,75.5,64.2,29.85,NNE,14,1.0,11.0,68,0.00,,,0.21,Wunderground v.1.15,2013-03-25 16:55:00,
2013-03-25 12:57:00,76.0,65.5,29.85,NNW,327,1.0,11.0,70,0.00,,,0.21,Wunderground v.1.15,2013-03-25 16:57:00,
2013-03-25 12:58:00,76.1,65.6,29.85,NNW,327,1.0,11.0,70,0.00,,,0.21,Wunderground v.1.15,2013-03-25 16:58:00,
2013-03-25 12:59:00,76.9,66.8,29.85,NNW,336,8.0,11.0,71,0.00,,,0.21,Wunderground v.1.15,2013-03-25 16:59:00,
2013-03-25 13:01:00,77.4,66.0,29.85,North,355,9.0,9.0,68,0.00,,,0.21,Wunderground v.1.15,2013-03-25 17:01:00,
2013-03-25 13:03:00,77.2,63.6,29.85,WNW,298,4.0,9.0,63,0.00,,,0.21,Wunderground v.1.15,2013-03-25 17:03:00,
2013-03-25 13:04:00,76.9,64.2,29.85,NW,318,0.0,9.0,65,0.00,,,0.21,Wunderground v.1.15,2013-03-25 17:04:00,
2013-03-25 13:07:00,76.6,65.7,29.85,NW,309,0.0,9.0,69,0.00,,,0.21,Wunderground v.1.15,2013-03-25 17:07:00,
2013-03-25 13:08:00,76.9,66.0,29.85,NW,317,0.0,9.0,69,0.00,,,0.21,Wunderground v.1.15,2013-03-25 17:08:00,
2013-03-25 13:09:00,77.2,65.8,29.85,North,5,4.0,9.0,68,0.00,,,0.21,Wunderground v.1.15,2013-03-25 17:09:00,
2013-03-25 13:10:00,77.5,65.7,29.85,NW,312,5.0,9.0,67,0.00,,,0.21,Wunderground v.1.15,2013-03-25 17:10:00,
2013-03-25 13:13:00,78.2,65.0,29.85,WNW,290,4.0,7.0,64,0.00,,,0.21,Wunderground v.1.15,2013-03-25 17:13:00,
2013-03-25 13:14:00,78.2,65.0,29.85,WNW,288,1.0,7.0,64,0.00,,,0.21,Wunderground v.1.15,2013-03-25 17:14:00,
2013-03-25 13:15:00,78.3,64.2,29.85,NW,312,1.0,8.0,62,0.00,,,0.21,Wunderground v.1.15,2013-03-25 17:15:00,
2013-03-25 13:18:00,78.8,66.9,29.85,NW,313,3.0,8.0,67,0.00,,,0.21,Wunderground v.1.15,2013-03-25 17:18:00,
2013-03-25 13:19:00,78.9,66.6,29.85,NNW,338,1.0,8.0,66,0.00,,,0.21,Wunderground v.1.15,2013-03-25 17:19:00,
2013-03-25 13:20:00,78.9,65.2,29.85,NNW,345,0.0,8.0,63,0.00,,,0.21,Wunderground v.1.15,2013-03-25 17:20:00,
2013-03-25 13:23:00,78.1,65.4,29.85,NW,305,2.0,9.0,65,0.00,,,0.21,Wunderground v.1.15,2013-03-25 17:23:00,
2013-03-25 13:24:00,78.0,65.3,29.85,WNW,288,0.0,9.0,65,0.00,,,0.21,Wunderground v.1.15,2013-03-25 17:24:00,
2013-03-25 13:25:00,77.8,65.1,29.85,NNW,332,5.0,9.0,65,0.00,,,0.21,Wunderground v.1.15,2013-03-25 17:25:00,
2013-03-25 13:27:00,77.5,64.4,29.84,NNW,342,2.0,9.0,64,0.00,,,0.21,Wunderground v.1.15,2013-03-25 17:27:00,
2013-03-25 13:29:00,77.5,65.7,29.84,NW,325,1.0,9.0,67,0.00,,,0.21,Wunderground v.1.15,2013-03-25 17:29:00,
2013-03-25 13:31:00,77.8,65.5,29.84,North,355,4.0,4.0,66,0.00,,,0.21,Wunderground v.1.15,2013-03-25 17:31:00,
2013-03-25 13:32:00,77.9,66.1,29.84,NNW,329,0.0,5.0,67,0.00,,,0.21,Wunderground v.1.15,2013-03-25 17:32:00,
2013-03-25 13:34:00,78.1,66.2,29.84,NW,320,0.0,5.0,67,0.00,,,0.21,Wunderground v.1.15,2013-03-25 17:34:00,
2013-03-25 13:37:00,78.3,66.0,29.84,NNW,335,1.0,5.0,66,0.00,,,0.21,Wunderground v.1.15,2013-03-25 17:37:00,
2013-03-25 13:39:00,78.3,65.1,29.84,NNW,336,4.0,6.0,64,0.00,,,0.21,Wunderground v.1.15,2013-03-25 17:39:00,
2013-03-25 13:40:00,78.2,63.6,29.84,WNW,297,0.0,6.0,61,0.00,,,0.21,Wunderground v.1.15,2013-03-25 17:40:00,
2013-03-25 13:42:00,78.0,63.9,29.84,NW,311,0.0,5.0,62,0.00,,,0.21,Wunderground v.1.15,2013-03-25 17:42:00,
2013-03-25 13:44:00,78.1,66.2,29.83,NW,316,2.0,5.0,67,0.00,,,0.21,Wunderground v.1.15,2013-03-25 17:44:00,
2013-03-25 13:46:00,78.2,65.5,29.83,NNW,340,3.0,7.0,65,0.00,,,0.21,Wunderground v.1.15,2013-03-25 17:46:00,
2013-03-25 13:47:00,78.1,64.5,29.84,NNW,334,7.0,8.0,63,0.00,,,0.21,Wunderground v.1.15,2013-03-25 17:47:00,
2013-03-25 13:48:00,78.0,65.3,29.84,NNW,331,2.0,8.0,65,0.00,,,0.21,Wunderground v.1.15,2013-03-25 17:48:00,
2013-03-25 13:49:00,78.0,65.7,29.84,North,355,1.0,8.0,66,0.00,,,0.21,Wunderground v.1.15,2013-03-25 17:49:00,
2013-03-25 13:51:00,78.0,64.8,29.83,North,9,1.0,8.0,64,0.00,,,0.21,Wunderground v.1.15,2013-03-25 17:51:00,
2013-03-25 13:52:00,78.0,65.7,29.83,NNW,332,3.0,8.0,66,0.00,,,0.21,Wunderground v.1.15,2013-03-25 17:52:00,
2013-03-25 13:53:00,78.2,66.3,29.83,NW,320,3.0,8.0,67,0.00,,,0.21,Wunderground v.1.15,2013-03-25 17:53:00,
2013-03-25 13:54:00,78.5,64.9,29.83,NW,326,0.0,8.0,63,0.00,,,0.21,Wunderground v.1.15,2013-03-25 17:54:00,
2013-03-25 13:56:00,78.7,64.1,29.83,NNW,335,1.0,8.0,61,0.00,,,0.21,Wunderground v.1.15,2013-03-25 17:56:00,
2013-03-25 13:58:00,79.0,63.9,29.83,NW,323,1.0,8.0,60,0.00,,,0.21,Wunderground v.1.15,2013-03-25 17:58:00,
2013-03-25 13:59:00,79.2,63.6,29.83,WNW,290,0.0,8.0,59,0.00,,,0.21,Wunderground v.1.15,2013-03-25 17:59:00,
2013-03-25 14:01:00,79.5,64.4,29.83,NW,323,1.0,2.0,60,0.00,,,0.21,Wunderground v.1.15,2013-03-25 18:01:00,
2013-03-25 14:03:00,79.5,63.9,29.83,NNW,340,3.0,6.0,59,0.00,,,0.21,Wunderground v.1.15,2013-03-25 18:03:00,
2013-03-25 14:04:00,79.5,64.9,29.83,NW,320,3.0,6.0,61,0.00,,,0.21,Wunderground v.1.15,2013-03-25 18:04:00,
2013-03-25 14:05:00,79.4,65.2,29.83,NNW,333,1.0,6.0,62,0.00,,,0.21,Wunderground v.1.15,2013-03-25 18:05:00,
2013-03-25 14:07:00,79.7,66.0,29.83,NNW,336,0.0,7.0,63,0.00,,,0.21,Wunderground v.1.15,2013-03-25 18:07:00,
2013-03-25 14:08:00,80.1,67.3,29.83,NNW,327,9.0,9.0,65,0.00,,,0.21,Wunderground v.1.15,2013-03-25 18:08:00,
2013-03-25 14:09:00,80.1,65.4,29.83,NW,311,5.0,9.0,61,0.00,,,0.21,Wunderground v.1.15,2013-03-25 18:09:00,
2013-03-25 14:10:00,80.1,64.5,29.83,NW,312,7.0,7.0,59,0.00,,,0.21,Wunderground v.1.15,2013-03-25 18:10:00,
2013-03-25 14:12:00,79.8,64.7,29.83,NW,323,2.0,7.0,60,0.00,,,0.21,Wunderground v.1.15,2013-03-25 18:12:00,
2013-03-25 14:14:00,79.9,66.2,29.83,WNW,302,2.0,7.0,63,0.00,,,0.21,Wunderground v.1.15,2013-03-25 18:14:00,
2013-03-25 14:15:00,79.9,64.8,29.83,NNW,335,6.0,7.0,60,0.00,,,0.21,Wunderground v.1.15,2013-03-25 18:15:00,
2013-03-25 14:18:00,80.0,64.9,29.83,NW,315,7.0,8.0,60,0.00,,,0.21,Wunderground v.1.15,2013-03-25 18:18:00,
2013-03-25 14:20:00,79.9,63.3,29.83,NW,306,4.0,10.0,57,0.00,,,0.21,Wunderground v.1.15,2013-03-25 18:20:00,
2013-03-25 14:21:00,79.8,63.7,29.83,NW,318,0.0,5.0,58,0.00,,,0.21,Wunderground v.1.15,2013-03-25 18:21:00,
2013-03-25 14:23:00,80.0,65.3,29.83,NNW,330,4.0,6.0,61,0.00,,,0.21,Wunderground v.1.15,2013-03-25 18:23:00,
2013-03-25 14:25:00,80.2,65.1,29.82,NW,321,0.0,10.0,60,0.00,,,0.21,Wunderground v.1.15,2013-03-25 18:25:00,
2013-03-25 14:26:00,80.3,64.2,29.82,NNW,339,6.0,10.0,58,0.00,,,0.21,Wunderground v.1.15,2013-03-25 18:26:00,
2013-03-25 14:28:00,80.2,64.1,29.82,NNW,342,0.0,10.0,58,0.00,,,0.21,Wunderground v.1.15,2013-03-25 18:28:00,
2013-03-25 14:30:00,80.0,63.4,29.82,NW,311,2.0,10.0,57,0.00,,,0.21,Wunderground v.1.15,2013-03-25 18:30:00,
2013-03-25 14:31:00,79.8,64.2,29.83,NW,326,0.0,2.0,59,0.00,,,0.21,Wunderground v.1.15,2013-03-25 18:31:00,
2013-03-25 14:32:00,79.8,64.7,29.83,NW,326,0.0,2.0,60,0.00,,,0.21,Wunderground v.1.15,2013-03-25 18:32:00,
2013-03-25 14:33:00,79.8,64.7,29.83,NNW,327,0.0,2.0,60,0.00,,,0.21,Wunderground v.1.15,2013-03-25 18:33:00,
2013-03-25 14:36:00,79.9,63.8,29.83,NW,325,0.0,5.0,58,0.00,,,0.21,Wunderground v.1.15,2013-03-25 18:36:00,
2013-03-25 14:37:00,80.1,64.5,29.83,NNW,327,1.0,5.0,59,0.00,,,0.21,Wunderground v.1.15,2013-03-25 18:37:00,
2013-03-25 14:38:00,80.2,64.6,29.83,NW,325,7.0,7.0,59,0.00,,,0.21,Wunderground v.1.15,2013-03-25 18:38:00,
2013-03-25 14:41:00,79.8,65.2,29.83,NNW,334,1.0,6.0,61,0.00,,,0.21,Wunderground v.1.15,2013-03-25 18:41:00,
2013-03-25 14:42:00,79.6,65.0,29.83,NW,325,4.0,7.0,61,0.00,,,0.21,Wunderground v.1.15,2013-03-25 18:42:00,
2013-03-25 14:43:00,79.5,64.9,29.83,North,5,6.0,7.0,61,0.00,,,0.21,Wunderground v.1.15,2013-03-25 18:43:00,
2013-03-25 14:47:00,78.7,65.0,29.83,North,351,5.0,9.0,63,0.00,,,0.21,Wunderground v.1.15,2013-03-25 18:47:00,
2013-03-25 14:48:00,78.8,65.1,29.83,North,360,7.0,9.0,63,0.00,,,0.21,Wunderground v.1.15,2013-03-25 18:48:00,
2013-03-25 14:52:00,79.1,65.0,29.82,NNW,337,0.0,6.0,62,0.00,,,0.21,Wunderground v.1.15,2013-03-25 18:52:00,
2013-03-25 14:53:00,79.3,66.1,29.83,NW,316,0.0,7.0,64,0.00,,,0.21,Wunderground v.1.15,2013-03-25 18:53:00,
2013-03-25 14:57:00,80.0,64.9,29.82,NNW,334,0.0,7.0,60,0.00,,,0.21,Wunderground v.1.15,2013-03-25 18:57:00,
2013-03-25 14:58:00,79.9,64.8,29.82,NNW,337,4.0,10.0,60,0.00,,,0.21,Wunderground v.1.15,2013-03-25 18:58:00,
2013-03-25 15:00:00,79.8,65.2,29.82,North,5,1.0,3.0,61,0.00,,,0.21,Wunderground v.1.15,2013-03-25 19:00:00,
2013-03-25 15:03:00,79.5,63.9,29.82,NNE,15,7.0,9.0,59,0.00,,,0.21,Wunderground v.1.15,2013-03-25 19:03:00,
2013-03-25 15:04:00,79.4,64.8,29.82,NNW,342,2.0,9.0,61,0.00,,,0.21,Wunderground v.1.15,2013-03-25 19:04:00,
2013-03-25 15:06:00,79.4,64.3,29.82,NNE,32,7.0,13.0,60,0.00,,,0.21,Wunderground v.1.15,2013-03-25 19:06:00,
2013-03-25 15:08:00,79.4,64.8,29.82,NNW,328,8.0,13.0,61,0.00,,,0.21,Wunderground v.1.15,2013-03-25 19:08:00,
2013-03-25 15:09:00,79.5,64.4,29.82,NW,317,5.0,13.0,60,0.00,,,0.21,Wunderground v.1.15,2013-03-25 19:09:00,
2013-03-25 15:10:00,79.5,64.9,29.82,North,355,7.0,13.0,61,0.00,,,0.21,Wunderground v.1.15,2013-03-25 19:10:00,
2013-03-25 15:11:00,79.6,64.5,29.82,WNW,292,4.0,5.0,60,0.00,,,0.21,Wunderground v.1.15,2013-03-25 19:11:00,
2013-03-25 15:13:00,79.6,64.0,29.82,NNW,344,0.0,7.0,59,0.00,,,0.21,Wunderground v.1.15,2013-03-25 19:13:00,
2013-03-25 15:14:00,79.6,64.5,29.82,NNW,339,1.0,7.0,60,0.00,,,0.21,Wunderground v.1.15,2013-03-25 19:14:00,
2013-03-25 15:15:00,79.6,65.4,29.81,NW,322,0.0,7.0,62,0.00,,,0.21,Wunderground v.1.15,2013-03-25 19:15:00,
2013-03-25 15:17:00,79.8,63.7,29.81,NNE,15,6.0,9.0,58,0.00,,,0.21,Wunderground v.1.15,2013-03-25 19:17:00,
2013-03-25 15:19:00,79.8,64.2,29.81,North,355,6.0,10.0,59,0.00,,,0.21,Wunderground v.1.15,2013-03-25 19:19:00,
2013-03-25 15:20:00,79.7,63.1,29.81,North,5,1.0,10.0,57,0.00,,,0.21,Wunderground v.1.15,2013-03-25 19:20:00,
2013-03-25 15:21:00,79.6,64.0,29.81,NNW,339,4.0,4.0,59,0.00,,,0.21,Wunderground v.1.15,2013-03-25 19:21:00,
2013-03-25 15:22:00,79.7,63.6,29.81,NNW,331,4.0,11.0,58,0.00,,,0.21,Wunderground v.1.15,2013-03-25 19:22:00,
2013-03-25 15:24:00,79.7,63.6,29.81,NNW,342,5.0,11.0,58,0.00,,,0.21,Wunderground v.1.15,2013-03-25 19:24:00,
2013-03-25 15:25:00,79.6,63.5,29.81,North,360,0.0,11.0,58,0.00,,,0.21,Wunderground v.1.15,2013-03-25 19:25:00,
2013-03-25 15:26:00,79.6,63.0,29.81,North,360,6.0,11.0,57,0.00,,,0.21,Wunderground v.1.15,2013-03-25 19:26:00,
2013-03-25 15:29:00,79.3,62.2,29.81,North,360,1.0,11.0,56,0.00,,,0.21,Wunderground v.1.15,2013-03-25 19:29:00,
2013-03-25 15:30:00,79.2,62.1,29.82,NNE,17,8.0,8.0,56,0.00,,,0.21,Wunderground v.1.15,2013-03-25 19:30:00,
2013-03-25 15:32:00,79.1,62.1,29.81,NNW,336,3.0,8.0,56,0.00,,,0.21,Wunderground v.1.15,2013-03-25 19:32:00,
2013-03-25 15:34:00,79.1,62.6,29.81,North,355,0.0,9.0,57,0.00,,,0.21,Wunderground v.1.15,2013-03-25 19:34:00,
2013-03-25 15:35:00,79.2,62.7,29.81,North,355,0.0,9.0,57,0.00,,,0.21,Wunderground v.1.15,2013-03-25 19:35:00,
2013-03-25 15:37:00,79.3,61.7,29.81,NW,313,2.0,9.0,55,0.00,,,0.21,Wunderground v.1.15,2013-03-25 19:37:00,
2013-03-25 15:39:00,79.7,62.6,29.81,NNW,343,5.0,10.0,56,0.00,,,0.21,Wunderground v.1.15,2013-03-25 19:39:00,
2013-03-25 15:41:00,79.7,62.1,29.81,NW,325,1.0,5.0,55,0.00,,,0.21,Wunderground v.1.15,2013-03-25 19:41:00,
2013-03-25 15:42:00,79.6,62.0,29.81,NNW,334,0.0,6.0,55,0.00,,,0.21,Wunderground v.1.15,2013-03-25 19:42:00,
2013-03-25 15:44:00,79.6,62.0,29.81,NNE,13,6.0,8.0,55,0.00,,,0.21,Wunderground v.1.15,2013-03-25 19:44:00,
2013-03-25 15:47:00,79.6,63.0,29.81,NW,309,0.0,8.0,57,0.00,,,0.21,Wunderground v.1.15,2013-03-25 19:47:00,
2013-03-25 15:48:00,79.6,62.0,29.81,NW,310,0.0,8.0,55,0.00,,,0.21,Wunderground v.1.15,2013-03-25 19:48:00,
2013-03-25 15:49:00,79.6,62.0,29.81,NNW,345,3.0,8.0,55,0.00,,,0.21,Wunderground v.1.15,2013-03-25 19:49:00,
2013-03-25 15:53:00,79.5,61.9,29.81,NNW,339,2.0,8.0,55,0.00,,,0.21,Wunderground v.1.15,2013-03-25 19:53:00,
2013-03-25 15:55:00,79.4,60.8,29.81,NNW,339,5.0,9.0,53,0.00,,,0.21,Wunderground v.1.15,2013-03-25 19:55:00,
2013-03-25 15:58:00,79.5,61.4,29.81,NW,319,6.0,9.0,54,0.00,,,0.21,Wunderground v.1.15,2013-03-25 19:58:00,
2013-03-25 15:59:00,79.5,60.9,29.81,NW,318,2.0,9.0,53,0.00,,,0.21,Wunderground v.1.15,2013-03-25 19:59:00,
2013-03-25 16:00:00,79.6,61.5,29.81,North,360,6.0,9.0,54,0.00,,,0.21,Wunderground v.1.15,2013-03-25 20:00:00,
2013-03-25 16:03:00,79.3,60.7,29.81,NNE,29,5.0,7.0,53,0.00,,,0.21,Wunderground v.1.15,2013-03-25 20:03:00,
2013-03-25 16:04:00,79.0,60.4,29.81,North,5,0.0,7.0,53,0.00,,,0.21,Wunderground v.1.15,2013-03-25 20:04:00,
2013-03-25 16:05:00,79.0,60.4,29.81,NNW,330,1.0,7.0,53,0.00,,,0.21,Wunderground v.1.15,2013-03-25 20:05:00,
2013-03-25 16:08:00,78.7,60.1,29.81,NNW,346,5.0,9.0,53,0.00,,,0.21,Wunderground v.1.15,2013-03-25 20:08:00,
2013-03-25 16:09:00,78.7,60.1,29.81,NNW,344,2.0,9.0,53,0.00,,,0.21,Wunderground v.1.15,2013-03-25 20:09:00,
2013-03-25 16:10:00,78.7,61.2,29.81,NNW,344,4.0,9.0,55,0.00,,,0.21,Wunderground v.1.15,2013-03-25 20:10:00,
2013-03-25 16:12:00,78.8,61.3,29.81,NNW,341,7.0,9.0,55,0.00,,,0.21,Wunderground v.1.15,2013-03-25 20:12:00,
2013-03-25 16:13:00,78.9,61.4,29.81,NW,304,6.0,9.0,55,0.00,,,0.21,Wunderground v.1.15,2013-03-25 20:13:00,
2013-03-25 16:14:00,78.9,61.4,29.81,WNW,294,4.0,9.0,55,0.00,,,0.21,Wunderground v.1.15,2013-03-25 20:14:00,
2013-03-25 16:15:00,78.8,59.7,29.81,NW,322,4.0,11.0,52,0.00,,,0.21,Wunderground v.1.15,2013-03-25 20:15:00,
2013-03-25 16:18:00,78.4,60.9,29.81,NNW,336,1.0,11.0,55,0.00,,,0.21,Wunderground v.1.15,2013-03-25 20:18:00,
2013-03-25 16:19:00,78.4,60.9,29.81,NNW,336,0.0,11.0,55,0.00,,,0.21,Wunderground v.1.15,2013-03-25 20:19:00,
2013-03-25 16:21:00,78.6,60.6,29.81,NNW,327,4.0,4.0,54,0.00,,,0.21,Wunderground v.1.15,2013-03-25 20:21:00,
2013-03-25 16:24:00,78.9,59.2,29.81,NNW,338,12.0,12.0,51,0.00,,,0.21,Wunderground v.1.15,2013-03-25 20:24:00,
2013-03-25 16:27:00,79.2,61.1,29.81,North,360,7.0,12.0,54,0.00,,,0.21,Wunderground v.1.15,2013-03-25 20:27:00,
2013-03-25 16:29:00,79.2,59.5,29.81,North,355,8.0,12.0,51,0.00,,,0.21,Wunderground v.1.15,2013-03-25 20:29:00,
2013-03-25 16:30:00,79.2,60.6,29.81,NNW,332,3.0,12.0,53,0.00,,,0.21,Wunderground v.1.15,2013-03-25 20:30:00,
2013-03-25 16:32:00,79.2,60.6,29.81,NNW,340,0.0,6.0,53,0.00,,,0.21,Wunderground v.1.15,2013-03-25 20:32:00,
2013-03-25 16:34:00,79.1,60.5,29.81,North,360,1.0,6.0,53,0.00,,,0.21,Wunderground v.1.15,2013-03-25 20:34:00,
2013-03-25 16:35:00,78.9,60.8,29.81,NNW,333,2.0,6.0,54,0.00,,,0.21,Wunderground v.1.15,2013-03-25 20:35:00,
2013-03-25 16:36:00,78.7,59.6,29.81,NNW,344,0.0,6.0,52,0.00,,,0.21,Wunderground v.1.15,2013-03-25 20:36:00,
2013-03-25 16:37:00,78.5,58.3,29.81,North,5,1.0,6.0,50,0.00,,,0.21,Wunderground v.1.15,2013-03-25 20:37:00,
2013-03-25 16:39:00,78.1,59.6,29.81,NW,318,2.0,9.0,53,0.00,,,0.21,Wunderground v.1.15,2013-03-25 20:39:00,
2013-03-25 16:40:00,78.0,58.9,29.81,NW,325,2.0,9.0,52,0.00,,,0.21,Wunderground v.1.15,2013-03-25 20:40:00,
2013-03-25 16:41:00,77.7,58.7,29.81,NW,322,0.0,5.0,52,0.00,,,0.21,Wunderground v.1.15,2013-03-25 20:41:00,
2013-03-25 16:42:00,77.5,59.0,29.81,NNW,343,0.0,5.0,53,0.00,,,0.21,Wunderground v.1.15,2013-03-25 20:42:00,
2013-03-25 16:44:00,77.4,59.5,29.81,WNW,294,6.0,6.0,54,0.00,,,0.21,Wunderground v.1.15,2013-03-25 20:44:00,
2013-03-25 16:45:00,77.4,59.5,29.81,North,351,6.0,9.0,54,0.00,,,0.21,Wunderground v.1.15,2013-03-25 20:45:00,
2013-03-25 16:46:00,77.3,58.3,29.81,NNW,332,1.0,9.0,52,0.00,,,0.21,Wunderground v.1.15,2013-03-25 20:46:00,
2013-03-25 16:47:00,77.2,58.7,29.81,NNW,334,0.0,9.0,53,0.00,,,0.21,Wunderground v.1.15,2013-03-25 20:47:00,
2013-03-25 16:49:00,77.3,59.4,29.81,NNW,347,5.0,9.0,54,0.00,,,0.21,Wunderground v.1.15,2013-03-25 20:49:00,
2013-03-25 16:50:00,77.3,59.4,29.81,North,11,7.0,7.0,54,0.00,,,0.21,Wunderground v.1.15,2013-03-25 20:50:00,
2013-03-25 16:53:00,77.2,58.2,29.81,North,360,6.0,10.0,52,0.00,,,0.21,Wunderground v.1.15,2013-03-25 20:53:00,
2013-03-25 16:54:00,77.0,57.5,29.82,NW,317,2.0,10.0,51,0.00,,,0.21,Wunderground v.1.15,2013-03-25 20:54:00,
2013-03-25 16:55:00,76.9,58.5,29.82,NNW,331,0.0,10.0,53,0.00,,,0.21,Wunderground v.1.15,2013-03-25 20:55:00,
2013-03-25 16:58:00,76.7,58.3,29.82,NE,36,2.0,10.0,53,0.00,,,0.21,Wunderground v.1.15,2013-03-25 20:58:00,
2013-03-25 16:59:00,76.7,58.3,29.82,NNW,336,3.0,10.0,53,0.00,,,0.21,Wunderground v.1.15,2013-03-25 20:59:00,
2013-03-25 17:00:00,76.7,59.3,29.81,NNE,21,3.0,10.0,55,0.00,,,0.21,Wunderground v.1.15,2013-03-25 21:00:00,
2013-03-25 17:03:00,76.9,59.0,29.81,NNE,23,1.0,10.0,54,0.00,,,0.21,Wunderground v.1.15,2013-03-25 21:03:00,
2013-03-25 17:04:00,77.0,59.1,29.81,North,360,5.0,10.0,54,0.00,,,0.21,Wunderground v.1.15,2013-03-25 21:04:00,
2013-03-25 17:06:00,77.1,59.7,29.82,NW,313,3.0,10.0,55,0.00,,,0.21,Wunderground v.1.15,2013-03-25 21:06:00,
2013-03-25 17:09:00,77.1,60.2,29.82,NNW,340,0.0,10.0,56,0.00,,,0.21,Wunderground v.1.15,2013-03-25 21:09:00,
2013-03-25 17:10:00,77.1,58.6,29.82,North,355,1.0,3.0,53,0.00,,,0.21,Wunderground v.1.15,2013-03-25 21:10:00,
2013-03-25 17:12:00,77.0,59.1,29.82,NNW,348,2.0,9.0,54,0.00,,,0.21,Wunderground v.1.15,2013-03-25 21:12:00,
2013-03-25 17:14:00,76.9,59.5,29.82,NE,36,1.0,9.0,55,0.00,,,0.21,Wunderground v.1.15,2013-03-25 21:14:00,
2013-03-25 17:16:00,76.9,59.5,29.82,NNW,336,0.0,9.0,55,0.00,,,0.21,Wunderground v.1.15,2013-03-25 21:16:00,
2013-03-25 17:18:00,76.9,59.5,29.82,North,5,0.0,9.0,55,0.00,,,0.21,Wunderground v.1.15,2013-03-25 21:18:00,
2013-03-25 17:19:00,76.9,59.0,29.82,NW,319,8.0,9.0,54,0.00,,,0.21,Wunderground v.1.15,2013-03-25 21:19:00,
2013-03-25 17:20:00,77.0,59.1,29.82,NNW,331,0.0,9.0,54,0.00,,,0.21,Wunderground v.1.15,2013-03-25 21:20:00,
2013-03-25 17:21:00,77.0,59.1,29.82,NNW,334,1.0,3.0,54,0.00,,,0.21,Wunderground v.1.15,2013-03-25 21:21:00,
2013-03-25 17:25:00,76.8,59.4,29.82,North,360,5.0,7.0,55,0.00,,,0.21,Wunderground v.1.15,2013-03-25 21:25:00,
2013-03-25 17:27:00,76.8,58.9,29.82,North,360,1.0,7.0,54,0.00,,,0.21,Wunderground v.1.15,2013-03-25 21:27:00,
2013-03-25 17:31:00,76.8,59.4,29.82,NNW,332,0.0,2.0,55,0.00,,,0.21,Wunderground v.1.15,2013-03-25 21:31:00,
2013-03-25 17:32:00,76.8,59.9,29.82,NNW,332,0.0,2.0,56,0.00,,,0.21,Wunderground v.1.15,2013-03-25 21:32:00,
2013-03-25 17:37:00,77.0,59.6,29.83,North,11,2.0,6.0,55,0.00,,,0.21,Wunderground v.1.15,2013-03-25 21:37:00,
2013-03-25 17:38:00,77.0,59.6,29.83,NNW,340,0.0,6.0,55,0.00,,,0.21,Wunderground v.1.15,2013-03-25 21:38:00,
2013-03-25 17:42:00,76.6,58.7,29.83,NNW,334,0.0,6.0,54,0.00,,,0.21,Wunderground v.1.15,2013-03-25 21:42:00,
2013-03-25 17:43:00,76.4,58.5,29.83,NNW,331,2.0,6.0,54,0.00,,,0.21,Wunderground v.1.15,2013-03-25 21:43:00,
2013-03-25 17:47:00,76.1,58.2,29.83,NNW,344,0.0,6.0,54,0.00,,,0.21,Wunderground v.1.15,2013-03-25 21:47:00,
2013-03-25 17:48:00,76.2,58.9,29.83,NNW,344,3.0,6.0,55,0.00,,,0.21,Wunderground v.1.15,2013-03-25 21:48:00,
2013-03-25 17:49:00,76.3,59.4,29.83,NW,311,3.0,6.0,56,0.00,,,0.21,Wunderground v.1.15,2013-03-25 21:49:00,
2013-03-25 17:52:00,76.7,58.8,29.83,NNW,346,1.0,5.0,54,0.00,,,0.21,Wunderground v.1.15,2013-03-25 21:52:00,
2013-03-25 17:53:00,76.7,58.8,29.83,NNW,342,2.0,5.0,54,0.00,,,0.21,Wunderground v.1.15,2013-03-25 21:53:00,
2013-03-25 17:54:00,76.8,58.9,29.83,North,351,1.0,7.0,54,0.00,,,0.21,Wunderground v.1.15,2013-03-25 21:54:00,
2013-03-25 17:57:00,76.6,58.7,29.83,NW,323,1.0,9.0,54,0.00,,,0.21,Wunderground v.1.15,2013-03-25 21:57:00,
2013-03-25 17:58:00,76.5,58.1,29.83,North,355,5.0,9.0,53,0.00,,,0.21,Wunderground v.1.15,2013-03-25 21:58:00,
2013-03-25 17:59:00,76.4,58.0,29.83,North,355,0.0,9.0,53,0.00,,,0.21,Wunderground v.1.15,2013-03-25 21:59:00,
2013-03-25 18:02:00,76.3,58.4,29.83,NNW,341,0.0,4.0,54,0.00,,,0.21,Wunderground v.1.15,2013-03-25 22:02:00,
2013-03-25 18:03:00,76.2,58.3,29.83,North,9,4.0,7.0,54,0.00,,,0.21,Wunderground v.1.15,2013-03-25 22:03:00,
2013-03-25 18:04:00,76.2,57.8,29.83,NNW,347,5.0,9.0,53,0.00,,,0.21,Wunderground v.1.15,2013-03-25 22:04:00,
2013-03-25 18:07:00,75.9,58.1,29.83,North,9,5.0,9.0,54,0.00,,,0.21,Wunderground v.1.15,2013-03-25 22:07:00,
2013-03-25 18:08:00,75.8,57.4,29.83,North,360,5.0,9.0,53,0.00,,,0.21,Wunderground v.1.15,2013-03-25 22:08:00,
2013-03-25 18:09:00,75.8,56.9,29.83,NNW,333,1.0,9.0,52,0.00,,,0.21,Wunderground v.1.15,2013-03-25 22:09:00,
2013-03-25 18:12:00,75.6,57.8,29.83,NNE,32,1.0,5.0,54,0.00,,,0.21,Wunderground v.1.15,2013-03-25 22:12:00,
2013-03-25 18:14:00,75.5,57.2,29.83,North,360,0.0,6.0,53,0.00,,,0.21,Wunderground v.1.15,2013-03-25 22:14:00,
2013-03-25 18:17:00,75.2,56.9,29.83,NNW,345,5.0,6.0,53,0.00,,,0.21,Wunderground v.1.15,2013-03-25 22:17:00,
2013-03-25 18:19:00,75.1,56.8,29.84,North,355,4.0,7.0,53,0.00,,,0.21,Wunderground v.1.15,2013-03-25 22:19:00,
2013-03-25 18:20:00,75.1,56.8,29.83,NNW,348,5.0,8.0,53,0.00,,,0.21,Wunderground v.1.15,2013-03-25 22:20:00,
2013-03-25 18:23:00,75.0,56.2,29.84,NNE,13,7.0,7.0,52,0.00,,,0.21,Wunderground v.1.15,2013-03-25 22:23:00,
2013-03-25 18:24:00,74.8,56.5,29.84,NW,325,2.0,7.0,53,0.00,,,0.21,Wunderground v.1.15,2013-03-25 22:24:00,
2013-03-25 18:25:00,74.8,56.5,29.84,NNW,327,0.0,7.0,53,0.00,,,0.21,Wunderground v.1.15,2013-03-25 22:25:00,
2013-03-25 18:28:00,74.7,56.9,29.85,NNW,342,3.0,7.0,54,0.00,,,0.21,Wunderground v.1.15,2013-03-25 22:28:00,
2013-03-25 18:29:00,74.6,56.9,29.85,NNW,347,5.0,7.0,54,0.00,,,0.21,Wunderground v.1.15,2013-03-25 22:29:00,
2013-03-25 18:31:00,74.5,56.2,29.85,NNW,336,1.0,8.0,53,0.00,,,0.21,Wunderground v.1.15,2013-03-25 22:31:00,
2013-03-25 18:34:00,74.4,57.2,29.85,North,5,2.0,8.0,55,0.00,,,0.21,Wunderground v.1.15,2013-03-25 22:34:00,
2013-03-25 18:36:00,74.2,57.0,29.85,NNW,340,2.0,8.0,55,0.00,,,0.21,Wunderground v.1.15,2013-03-25 22:36:00,
2013-03-25 18:39:00,74.2,56.5,29.85,North,355,2.0,8.0,54,0.00,,,0.21,Wunderground v.1.15,2013-03-25 22:39:00,
2013-03-25 18:41:00,74.1,57.4,29.85,NW,320,7.0,7.0,56,0.00,,,0.21,Wunderground v.1.15,2013-03-25 22:41:00,
2013-03-25 18:44:00,73.8,56.1,29.86,North,360,0.0,7.0,54,0.00,,,0.21,Wunderground v.1.15,2013-03-25 22:44:00,
2013-03-25 18:45:00,73.7,56.5,29.86,North,5,5.0,7.0,55,0.00,,,0.21,Wunderground v.1.15,2013-03-25 22:45:00,
2013-03-25 18:46:00,73.6,55.9,29.86,North,355,0.0,7.0,54,0.00,,,0.21,Wunderground v.1.15,2013-03-25 22:46:00,
2013-03-25 18:47:00,73.6,55.9,29.86,NW,325,6.0,7.0,54,0.00,,,0.21,Wunderground v.1.15,2013-03-25 22:47:00,
2013-03-25 18:49:00,73.4,55.7,29.86,NNW,348,2.0,8.0,54,0.00,,,0.21,Wunderground v.1.15,2013-03-25 22:49:00,
2013-03-25 18:50:00,73.3,55.6,29.86,North,5,1.0,8.0,54,0.00,,,0.21,Wunderground v.1.15,2013-03-25 22:50:00,
2013-03-25 18:52:00,73.2,56.1,29.86,NNW,346,0.0,2.0,55,0.00,,,0.21,Wunderground v.1.15,2013-03-25 22:52:00,
2013-03-25 18:54:00,73.0,55.9,29.85,NNW,346,2.0,6.0,55,0.00,,,0.21,Wunderground v.1.15,2013-03-25 22:54:00,
2013-03-25 18:56:00,73.0,55.9,29.86,NNW,343,0.0,6.0,55,0.00,,,0.21,Wunderground v.1.15,2013-03-25 22:56:00,
2013-03-25 18:57:00,73.0,55.9,29.86,North,355,0.0,6.0,55,0.00,,,0.21,Wunderground v.1.15,2013-03-25 22:57:00,
2013-03-25 18:58:00,73.0,55.9,29.86,NNW,342,0.0,6.0,55,0.00,,,0.21,Wunderground v.1.15,2013-03-25 22:58:00,
2013-03-25 19:00:00,72.9,55.3,29.86,NW,319,7.0,8.0,54,0.00,,,0.21,Wunderground v.1.15,2013-03-25 23:00:00,
2013-03-25 19:02:00,72.8,55.7,29.86,North,360,0.0,5.0,55,0.00,,,0.21,Wunderground v.1.15,2013-03-25 23:02:00,
2013-03-25 19:03:00,72.8,55.2,29.86,North,360,0.0,5.0,54,0.00,,,0.21,Wunderground v.1.15,2013-03-25 23:03:00,
2013-03-25 19:05:00,72.6,55.0,29.86,North,360,0.0,5.0,54,0.00,,,0.21,Wunderground v.1.15,2013-03-25 23:05:00,
2013-03-25 19:07:00,72.5,54.9,29.86,North,5,0.0,6.0,54,0.00,,,0.21,Wunderground v.1.15,2013-03-25 23:07:00,
2013-03-25 19:08:00,72.5,54.4,29.86,North,5,0.0,6.0,53,0.00,,,0.21,Wunderground v.1.15,2013-03-25 23:08:00,
2013-03-25 19:11:00,72.3,55.2,29.86,North,10,1.0,6.0,55,0.00,,,0.21,Wunderground v.1.15,2013-03-25 23:11:00,
2013-03-25 19:12:00,72.2,54.6,29.86,North,5,0.0,6.0,54,0.00,,,0.21,Wunderground v.1.15,2013-03-25 23:12:00,
2013-03-25 19:13:00,72.2,54.6,29.86,North,5,0.0,6.0,54,0.00,,,0.21,Wunderground v.1.15,2013-03-25 23:13:00,
2013-03-25 19:16:00,72.0,54.4,29.86,NNE,12,1.0,6.0,54,0.00,,,0.21,Wunderground v.1.15,2013-03-25 23:16:00,
2013-03-25 19:18:00,71.9,54.9,29.87,NNW,346,3.0,6.0,55,0.00,,,0.21,Wunderground v.1.15,2013-03-25 23:18:00,
2013-03-25 19:22:00,71.8,54.8,29.86,North,360,0.0,1.0,55,0.00,,,0.21,Wunderground v.1.15,2013-03-25 23:22:00,
2013-03-25 19:23:00,71.8,54.8,29.86,North,360,1.0,2.0,55,0.00,,,0.21,Wunderground v.1.15,2013-03-25 23:23:00,
2013-03-25 19:27:00,71.6,54.1,29.87,North,360,0.0,4.0,54,0.00,,,0.21,Wunderground v.1.15,2013-03-25 23:27:00,
2013-03-25 19:28:00,71.6,54.6,29.87,North,360,0.0,4.0,55,0.00,,,0.21,Wunderground v.1.15,2013-03-25 23:28:00,
2013-03-25 19:29:00,71.6,54.6,29.87,North,360,0.0,4.0,55,0.00,,,0.21,Wunderground v.1.15,2013-03-25 23:29:00,
2013-03-25 19:32:00,71.4,54.4,29.87,North,360,0.0,1.0,55,0.00,,,0.21,Wunderground v.1.15,2013-03-25 23:32:00,
2013-03-25 19:33:00,71.3,54.3,29.87,North,360,0.0,1.0,55,0.00,,,0.21,Wunderground v.1.15,2013-03-25 23:33:00,
2013-03-25 19:34:00,71.3,54.8,29.87,North,355,0.0,2.0,56,0.00,,,0.21,Wunderground v.1.15,2013-03-25 23:34:00,
2013-03-25 19:38:00,71.2,54.7,29.87,North,355,1.0,2.0,56,0.00,,,0.21,Wunderground v.1.15,2013-03-25 23:38:00,
2013-03-25 19:39:00,71.2,54.7,29.87,North,355,0.0,2.0,56,0.00,,,0.21,Wunderground v.1.15,2013-03-25 23:39:00,
2013-03-25 19:43:00,71.1,54.6,29.88,NNW,339,1.0,2.0,56,0.00,,,0.21,Wunderground v.1.15,2013-03-25 23:43:00,
2013-03-25 19:44:00,71.0,54.5,29.88,North,360,0.0,5.0,56,0.00,,,0.21,Wunderground v.1.15,2013-03-25 23:44:00,
2013-03-25 19:45:00,71.0,54.5,29.88,North,360,0.0,5.0,56,0.00,,,0.21,Wunderground v.1.15,2013-03-25 23:45:00,
2013-03-25 19:48:00,70.9,54.9,29.88,North,360,0.0,5.0,57,0.00,,,0.21,Wunderground v.1.15,2013-03-25 23:48:00,
2013-03-25 19:49:00,70.9,54.9,29.88,North,360,0.0,5.0,57,0.00,,,0.21,Wunderground v.1.15,2013-03-25 23:49:00,
2013-03-25 19:50:00,70.8,54.3,29.88,North,360,0.0,5.0,56,0.00,,,0.21,Wunderground v.1.15,2013-03-25 23:50:00,
2013-03-25 19:52:00,70.8,54.3,29.88,North,11,0.0,3.0,56,0.00,,,0.21,Wunderground v.1.15,2013-03-25 23:52:00,
2013-03-25 19:53:00,70.8,54.8,29.89,North,9,0.0,3.0,57,0.00,,,0.21,Wunderground v.1.15,2013-03-25 23:53:00,
2013-03-25 19:54:00,70.8,54.8,29.89,North,9,0.0,3.0,57,0.00,,,0.21,Wunderground v.1.15,2013-03-25 23:54:00,
2013-03-25 19:55:00,70.8,54.8,29.89,North,9,0.0,3.0,57,0.00,,,0.21,Wunderground v.1.15,2013-03-25 23:55:00,
2013-03-25 19:57:00,70.8,54.8,29.89,North,5,0.0,3.0,57,0.00,,,0.21,Wunderground v.1.15,2013-03-25 23:57:00,
2013-03-25 19:58:00,70.8,54.8,29.89,North,5,0.0,3.0,57,0.00,,,0.21,Wunderground v.1.15,2013-03-25 23:58:00,
2013-03-25 19:59:00,70.8,54.8,29.89,North,5,0.0,3.0,57,0.00,,,0.21,Wunderground v.1.15,2013-03-25 23:59:00,
2013-03-25 20:00:00,70.8,54.8,29.89,North,5,0.0,0.0,57,0.00,,,0.21,Wunderground v.1.15,2013-03-26 00:00:00,
2013-03-25 20:03:00,70.8,55.3,29.89,North,5,0.0,0.0,58,0.00,,,0.21,Wunderground v.1.15,2013-03-26 00:03:00,
2013-03-25 20:04:00,70.8,55.3,29.89,North,5,0.0,1.0,58,0.00,,,0.21,Wunderground v.1.15,2013-03-26 00:04:00,
2013-03-25 20:05:00,70.8,55.3,29.89,North,5,0.0,1.0,58,0.00,,,0.21,Wunderground v.1.15,2013-03-26 00:05:00,
2013-03-25 20:06:00,70.8,55.3,29.89,North,5,0.0,1.0,58,0.00,,,0.21,Wunderground v.1.15,2013-03-26 00:06:00,
2013-03-25 20:09:00,70.7,55.7,29.89,North,5,1.0,4.0,59,0.00,,,0.21,Wunderground v.1.15,2013-03-26 00:09:00,
2013-03-25 20:10:00,70.7,55.2,29.89,North,5,0.0,4.0,58,0.00,,,0.21,Wunderground v.1.15,2013-03-26 00:10:00,
2013-03-25 20:11:00,70.7,55.7,29.89,North,5,0.0,0.0,59,0.00,,,0.21,Wunderground v.1.15,2013-03-26 00:11:00,
2013-03-25 20:12:00,70.7,56.1,29.89,North,5,0.0,0.0,60,0.00,,,0.21,Wunderground v.1.15,2013-03-26 00:12:00,
2013-03-25 20:14:00,70.6,55.6,29.89,North,5,2.0,2.0,59,0.00,,,0.21,Wunderground v.1.15,2013-03-26 00:14:00,
2013-03-25 20:15:00,70.6,55.1,29.89,North,5,0.0,2.0,58,0.00,,,0.21,Wunderground v.1.15,2013-03-26 00:15:00,
2013-03-25 20:16:00,70.6,55.1,29.89,North,5,0.0,2.0,58,0.00,,,0.21,Wunderground v.1.15,2013-03-26 00:16:00,
2013-03-25 20:18:00,70.5,55.5,29.89,North,5,0.0,2.0,59,0.00,,,0.21,Wunderground v.1.15,2013-03-26 00:18:00,
2013-03-25 20:19:00,70.5,55.9,29.89,North,5,0.0,2.0,60,0.00,,,0.21,Wunderground v.1.15,2013-03-26 00:19:00,
2013-03-25 20:20:00,70.4,55.4,29.89,North,5,0.0,0.0,59,0.00,,,0.21,Wunderground v.1.15,2013-03-26 00:20:00,
2013-03-25 20:21:00,70.3,55.8,29.89,North,5,0.0,0.0,60,0.00,,,0.21,Wunderground v.1.15,2013-03-26 00:21:00,
2013-03-25 20:23:00,70.1,55.6,29.89,North,5,0.0,1.0,60,0.00,,,0.21,Wunderground v.1.15,2013-03-26 00:23:00,
2013-03-25 20:24:00,70.1,55.6,29.89,North,5,0.0,1.0,60,0.00,,,0.21,Wunderground v.1.15,2013-03-26 00:24:00,
2013-03-25 20:25:00,70.0,55.0,29.89,North,360,0.0,1.0,59,0.00,,,0.21,Wunderground v.1.15,2013-03-26 00:25:00,
2013-03-25 20:26:00,70.0,55.0,29.89,North,360,0.0,1.0,59,0.00,,,0.21,Wunderground v.1.15,2013-03-26 00:26:00,
2013-03-25 20:28:00,69.9,54.9,29.90,North,360,0.0,1.0,59,0.00,,,0.21,Wunderground v.1.15,2013-03-26 00:28:00,
2013-03-25 20:29:00,69.8,55.3,29.90,North,360,0.0,1.0,60,0.00,,,0.21,Wunderground v.1.15,2013-03-26 00:29:00,
2013-03-25 20:32:00,69.7,55.2,29.90,North,360,2.0,2.0,60,0.00,,,0.21,Wunderground v.1.15,2013-03-26 00:32:00,
2013-03-25 20:34:00,69.7,54.7,29.90,North,9,0.0,2.0,59,0.00,,,0.21,Wunderground v.1.15,2013-03-26 00:34:00,
2013-03-25 20:37:00,69.8,54.4,29.90,North,355,0.0,2.0,58,0.00,,,0.21,Wunderground v.1.15,2013-03-26 00:37:00,
2013-03-25 20:39:00,69.9,54.4,29.90,North,360,3.0,7.0,58,0.00,,,0.21,Wunderground v.1.15,2013-03-26 00:39:00,
2013-03-25 20:41:00,70.0,54.1,29.90,North,350,1.0,1.0,57,0.00,,,0.21,Wunderground v.1.15,2013-03-26 00:41:00,
2013-03-25 20:42:00,70.1,53.7,29.91,North,355,3.0,8.0,56,0.00,,,0.21,Wunderground v.1.15,2013-03-26 00:42:00,
2013-03-25 20:43:00,70.1,53.2,29.91,NNW,344,0.0,8.0,55,0.00,,,0.21,Wunderground v.1.15,2013-03-26 00:43:00,
2013-03-25 20:44:00,70.2,52.8,29.91,NNW,333,4.0,8.0,54,0.00,,,0.21,Wunderground v.1.15,2013-03-26 00:44:00,
2013-03-25 20:46:00,70.3,52.4,29.91,NNW,346,0.0,8.0,53,0.00,,,0.21,Wunderground v.1.15,2013-03-26 00:46:00,
2013-03-25 20:47:00,70.3,51.8,29.91,NNW,328,6.0,8.0,52,0.00,,,0.21,Wunderground v.1.15,2013-03-26 00:47:00,
2013-03-25 20:48:00,70.4,52.4,29.91,NNW,340,1.0,8.0,53,0.00,,,0.21,Wunderground v.1.15,2013-03-26 00:48:00,
2013-03-25 20:49:00,70.4,52.4,29.91,NNW,330,1.0,8.0,53,0.00,,,0.21,Wunderground v.1.15,2013-03-26 00:49:00,
2013-03-25 20:52:00,70.4,51.9,29.91,NNW,340,0.0,6.0,52,0.00,,,0.21,Wunderground v.1.15,2013-03-26 00:52:00,
2013-03-25 20:54:00,70.4,51.9,29.91,NNW,346,0.0,7.0,52,0.00,,,0.21,Wunderground v.1.15,2013-03-26 00:54:00,
2013-03-25 20:56:00,70.4,51.9,29.91,NNE,12,3.0,7.0,52,0.00,,,0.21,Wunderground v.1.15,2013-03-26 00:56:00,
2013-03-25 20:57:00,70.4,51.4,29.91,NNW,339,1.0,7.0,51,0.00,,,0.21,Wunderground v.1.15,2013-03-26 00:57:00,
2013-03-25 20:58:00,70.4,51.4,29.91,North,5,0.0,7.0,51,0.00,,,0.21,Wunderground v.1.15,2013-03-26 00:58:00,
2013-03-25 21:00:00,70.4,50.3,29.91,NNW,333,1.0,11.0,49,0.00,,,0.21,Wunderground v.1.15,2013-03-26 01:00:00,
2013-03-25 21:01:00,70.4,50.3,29.91,NNW,341,6.0,7.0,49,0.00,,,0.21,Wunderground v.1.15,2013-03-26 01:01:00,
2013-03-25 21:02:00,70.4,50.3,29.91,NW,325,0.0,7.0,49,0.00,,,0.21,Wunderground v.1.15,2013-03-26 01:02:00,
2013-03-25 21:03:00,70.4,50.3,29.91,NNW,327,0.0,7.0,49,0.00,,,0.21,Wunderground v.1.15,2013-03-26 01:03:00,
2013-03-25 21:05:00,70.3,50.2,29.92,North,11,5.0,7.0,49,0.00,,,0.21,Wunderground v.1.15,2013-03-26 01:05:00,
2013-03-25 21:07:00,70.2,49.0,29.91,NNW,344,0.0,9.0,47,0.00,,,0.21,Wunderground v.1.15,2013-03-26 01:07:00,
2013-03-25 21:08:00,70.1,49.5,29.91,NNW,339,0.0,9.0,48,0.00,,,0.21,Wunderground v.1.15,2013-03-26 01:08:00,
2013-03-25 21:10:00,70.0,48.8,29.92,NNW,344,0.0,2.0,47,0.00,,,0.21,Wunderground v.1.15,2013-03-26 01:10:00,
2013-03-25 21:12:00,69.9,48.2,29.92,North,360,0.0,8.0,46,0.00,,,0.21,Wunderground v.1.15,2013-03-26 01:12:00,
2013-03-25 21:13:00,69.8,48.1,29.92,North,360,7.0,8.0,46,0.00,,,0.21,Wunderground v.1.15,2013-03-26 01:13:00,
2013-03-25 21:16:00,69.7,48.0,29.92,North,350,0.0,8.0,46,0.00,,,0.21,Wunderground v.1.15,2013-03-26 01:16:00,
2013-03-25 21:17:00,69.6,47.9,29.92,North,355,0.0,8.0,46,0.00,,,0.21,Wunderground v.1.15,2013-03-26 01:17:00,
2013-03-25 21:18:00,69.6,47.9,29.92,North,360,0.0,8.0,46,0.00,,,0.21,Wunderground v.1.15,2013-03-26 01:18:00,
2013-03-25 21:21:00,69.5,47.8,29.92,NNW,337,0.0,2.0,46,0.00,,,0.21,Wunderground v.1.15,2013-03-26 01:21:00,
2013-03-25 21:23:00,69.4,47.7,29.92,NNW,329,1.0,2.0,46,0.00,,,0.21,Wunderground v.1.15,2013-03-26 01:23:00,
2013-03-25 21:26:00,69.3,47.6,29.92,NNW,343,0.0,3.0,46,0.00,,,0.21,Wunderground v.1.15,2013-03-26 01:26:00,
2013-03-25 21:28:00,69.3,47.6,29.92,NNW,340,2.0,6.0,46,0.00,,,0.21,Wunderground v.1.15,2013-03-26 01:28:00,
2013-03-25 21:33:00,69.1,48.0,29.92,NNW,344,0.0,5.0,47,0.00,,,0.21,Wunderground v.1.15,2013-03-26 01:33:00,
2013-03-25 21:34:00,69.1,46.9,29.92,NNE,15,0.0,5.0,45,0.00,,,0.21,Wunderground v.1.15,2013-03-26 01:34:00,
2013-03-25 21:38:00,69.0,47.9,29.92,NNW,332,0.0,9.0,47,0.00,,,0.21,Wunderground v.1.15,2013-03-26 01:38:00,
2013-03-25 21:39:00,69.0,47.9,29.92,NNW,346,0.0,9.0,47,0.00,,,0.21,Wunderground v.1.15,2013-03-26 01:39:00,
2013-03-25 21:44:00,68.7,48.2,29.92,NW,323,1.0,4.0,48,0.00,,,0.21,Wunderground v.1.15,2013-03-26 01:44:00,
2013-03-25 21:45:00,68.7,48.2,29.92,NNE,22,0.0,4.0,48,0.00,,,0.21,Wunderground v.1.15,2013-03-26 01:45:00,
2013-03-25 21:49:00,68.5,47.5,29.92,NNW,335,2.0,8.0,47,0.00,,,0.21,Wunderground v.1.15,2013-03-26 01:49:00,
2013-03-25 21:50:00,68.5,47.5,29.92,NNW,333,0.0,8.0,47,0.00,,,0.21,Wunderground v.1.15,2013-03-26 01:50:00,
2013-03-25 21:55:00,68.2,47.8,29.92,NNW,333,4.0,8.0,48,0.00,,,0.21,Wunderground v.1.15,2013-03-26 01:55:00,
2013-03-25 21:57:00,68.1,47.7,29.93,NNW,343,1.0,8.0,48,0.00,,,0.21,Wunderground v.1.15,2013-03-26 01:57:00,
2013-03-25 22:00:00,67.9,47.5,29.93,North,5,0.0,8.0,48,0.00,,,0.21,Wunderground v.1.15,2013-03-26 02:00:00,
2013-03-25 22:03:00,67.7,47.8,29.93,NNW,327,0.0,6.0,49,0.00,,,0.21,Wunderground v.1.15,2013-03-26 02:03:00,
2013-03-25 22:05:00,67.6,47.8,29.93,NNW,331,4.0,6.0,49,0.00,,,0.21,Wunderground v.1.15,2013-03-26 02:05:00,
2013-03-25 22:06:00,67.5,47.7,29.93,North,350,6.0,6.0,49,0.00,,,0.21,Wunderground v.1.15,2013-03-26 02:06:00,
2013-03-25 22:10:00,67.2,47.9,29.93,North,351,0.0,6.0,50,0.00,,,0.21,Wunderground v.1.15,2013-03-26 02:10:00,
2013-03-25 22:11:00,67.2,48.5,29.93,NNW,348,0.0,5.0,51,0.00,,,0.21,Wunderground v.1.15,2013-03-26 02:11:00,
2013-03-25 22:12:00,67.1,48.4,29.93,NNW,342,0.0,5.0,51,0.00,,,0.21,Wunderground v.1.15,2013-03-26 02:12:00,
2013-03-25 22:16:00,66.8,48.6,29.93,NNW,333,0.0,6.0,52,0.00,,,0.21,Wunderground v.1.15,2013-03-26 02:16:00,
2013-03-25 22:17:00,66.7,48.5,29.93,NNW,341,0.0,6.0,52,0.00,,,0.21,Wunderground v.1.15,2013-03-26 02:17:00,
2013-03-25 22:21:00,66.5,48.8,29.94,NNW,331,0.0,0.0,53,0.00,,,0.21,Wunderground v.1.15,2013-03-26 02:21:00,
2013-03-25 22:22:00,66.4,49.2,29.94,NNW,331,0.0,0.0,54,0.00,,,0.21,Wunderground v.1.15,2013-03-26 02:22:00,
2013-03-25 22:23:00,66.3,49.2,29.94,NNW,331,0.0,0.0,54,0.00,,,0.21,Wunderground v.1.15,2013-03-26 02:23:00,
2013-03-25 22:26:00,66.0,49.8,29.94,NNW,331,0.0,4.0,56,0.00,,,0.21,Wunderground v.1.15,2013-03-26 02:26:00,
2013-03-25 22:27:00,66.0,49.8,29.94,NNW,331,0.0,4.0,56,0.00,,,0.21,Wunderground v.1.15,2013-03-26 02:27:00,
2013-03-25 22:28:00,65.9,49.8,29.94,NNW,331,0.0,4.0,56,0.00,,,0.21,Wunderground v.1.15,2013-03-26 02:28:00,
2013-03-25 22:32:00,65.7,50.0,29.94,NNW,328,0.0,2.0,57,0.00,,,0.21,Wunderground v.1.15,2013-03-26 02:32:00,
2013-03-25 22:33:00,65.6,50.0,29.94,NNW,328,0.0,2.0,57,0.00,,,0.21,Wunderground v.1.15,2013-03-26 02:33:00,
2013-03-25 22:37:00,65.6,49.5,29.94,North,349,0.0,4.0,56,0.00,,,0.21,Wunderground v.1.15,2013-03-26 02:37:00,
2013-03-25 22:38:00,65.5,49.9,29.94,NNW,346,0.0,4.0,57,0.00,,,0.21,Wunderground v.1.15,2013-03-26 02:38:00,
2013-03-25 22:42:00,65.4,49.3,29.94,NNW,331,7.0,7.0,56,0.00,,,0.21,Wunderground v.1.15,2013-03-26 02:42:00,
2013-03-25 22:43:00,65.4,48.8,29.94,NNW,327,1.0,7.0,55,0.00,,,0.21,Wunderground v.1.15,2013-03-26 02:43:00,
2013-03-25 22:51:00,65.2,47.1,29.94,NNW,331,2.0,2.0,52,0.00,,,0.21,Wunderground v.1.15,2013-03-26 02:51:00,
2013-03-25 22:56:00,65.0,46.4,29.95,NNW,327,0.0,7.0,51,0.00,,,0.21,Wunderground v.1.15,2013-03-26 02:56:00,
2013-03-25 22:57:00,64.9,45.8,29.95,NNW,344,0.0,7.0,50,0.00,,,0.21,Wunderground v.1.15,2013-03-26 02:57:00,
2013-03-25 22:58:00,64.9,45.8,29.96,NW,306,0.0,8.0,50,0.00,,,0.21,Wunderground v.1.15,2013-03-26 02:58:00,
2013-03-25 23:02:00,64.9,44.2,29.95,NW,317,0.0,6.0,47,0.00,,,0.21,Wunderground v.1.15,2013-03-26 03:02:00,
2013-03-25 23:03:00,64.9,44.2,29.96,NW,315,1.0,6.0,47,0.00,,,0.21,Wunderground v.1.15,2013-03-26 03:03:00,
2013-03-25 23:07:00,64.8,44.6,29.96,North,355,1.0,6.0,48,0.00,,,0.21,Wunderground v.1.15,2013-03-26 03:07:00,
2013-03-25 23:08:00,64.7,45.1,29.96,NW,304,0.0,6.0,49,0.00,,,0.21,Wunderground v.1.15,2013-03-26 03:08:00,
2013-03-25 23:12:00,64.5,43.8,29.96,NW,306,1.0,10.0,47,0.00,,,0.21,Wunderground v.1.15,2013-03-26 03:12:00,
2013-03-25 23:13:00,64.5,43.8,29.96,NW,323,1.0,10.0,47,0.00,,,0.21,Wunderground v.1.15,2013-03-26 03:13:00,
2013-03-25 23:14:00,64.4,43.7,29.96,NW,323,0.0,10.0,47,0.00,,,0.21,Wunderground v.1.15,2013-03-26 03:14:00,
2013-03-25 23:17:00,64.2,42.4,29.96,NNW,333,0.0,11.0,45,0.00,,,0.21,Wunderground v.1.15,2013-03-26 03:17:00,
2013-03-25 23:18:00,64.1,42.3,29.96,NW,325,15.0,15.0,45,0.00,,,0.21,Wunderground v.1.15,2013-03-26 03:18:00,
2013-03-25 23:19:00,64.1,41.7,29.96,NNW,329,4.0,15.0,44,0.00,,,0.21,Wunderground v.1.15,2013-03-26 03:19:00,
2013-03-25 23:23:00,64.0,41.6,29.96,NW,311,0.0,11.0,44,0.00,,,0.21,Wunderground v.1.15,2013-03-26 03:23:00,
2013-03-25 23:24:00,63.9,41.5,29.96,North,355,8.0,11.0,44,0.00,,,0.21,Wunderground v.1.15,2013-03-26 03:24:00,
2013-03-25 23:28:00,63.7,40.8,29.97,NNW,342,0.0,11.0,43,0.00,,,0.21,Wunderground v.1.15,2013-03-26 03:28:00,
2013-03-25 23:29:00,63.6,40.7,29.96,NNW,328,0.0,12.0,43,0.00,,,0.21,Wunderground v.1.15,2013-03-26 03:29:00,
2013-03-25 23:33:00,63.5,41.2,29.96,NNW,344,6.0,9.0,44,0.00,,,0.21,Wunderground v.1.15,2013-03-26 03:33:00,
2013-03-25 23:34:00,63.5,40.6,29.96,WNW,293,4.0,9.0,43,0.00,,,0.21,Wunderground v.1.15,2013-03-26 03:34:00,
2013-03-25 23:36:00,63.4,40.5,29.96,North,355,0.0,9.0,43,0.00,,,0.21,Wunderground v.1.15,2013-03-26 03:36:00,
2013-03-25 23:39:00,63.3,41.0,29.96,NNW,339,7.0,9.0,44,0.00,,,0.21,Wunderground v.1.15,2013-03-26 03:39:00,
2013-03-25 23:41:00,63.2,40.9,29.96,WNW,303,0.0,3.0,44,0.00,,,0.21,Wunderground v.1.15,2013-03-26 03:41:00,
2013-03-25 23:44:00,63.2,40.9,29.96,NNW,341,8.0,12.0,44,0.00,,,0.21,Wunderground v.1.15,2013-03-26 03:44:00,
2013-03-25 23:45:00,63.2,40.9,29.96,NNW,327,1.0,12.0,44,0.00,,,0.21,Wunderground v.1.15,2013-03-26 03:45:00,
2013-03-25 23:46:00,63.2,41.5,29.96,NW,323,5.0,12.0,45,0.00,,,0.21,Wunderground v.1.15,2013-03-26 03:46:00,
2013-03-25 23:49:00,63.2,42.1,29.96,NNW,342,0.0,12.0,46,0.00,,,0.21,Wunderground v.1.15,2013-03-26 03:49:00,
2013-03-25 23:50:00,63.1,42.0,29.97,NW,325,0.0,12.0,46,0.00,,,0.21,Wunderground v.1.15,2013-03-26 03:50:00,
2013-03-25 23:52:00,63.0,41.9,29.97,NW,306,1.0,8.0,46,0.00,,,0.21,Wunderground v.1.15,2013-03-26 03:52:00,
2013-03-25 23:54:00,63.0,41.9,29.98,WNW,284,0.0,8.0,46,0.00,,,0.21,Wunderground v.1.15,2013-03-26 03:54:00,
2013-03-25 23:56:00,62.9,41.8,29.98,NW,312,1.0,8.0,46,0.00,,,0.21,Wunderground v.1.15,2013-03-26 03:56:00,
2013-03-25 23:57:00,62.9,42.4,29.97,NW,306,5.0,8.0,47,0.00,,,0.21,Wunderground v.1.15,2013-03-26 03:57:00,
2013-03-25 23:59:00,62.8,41.7,29.98,NW,314,0.0,8.0,46,0.00,,,0.21,Wunderground v.1.15,2013-03-26 03:59:00,